GFSGBSN_700_rhum_051.txt.gz
RH
46 55 62 65 71 67 60 66 43 37 27 20 29 30 41 63 53 42 37 42 56 60 66 77 82 79 67 59 67 85 84 89 79 30 72 72 74 47 42 97 72 66 79 88 99 85 70
33 47 54 69 66 58 60 70 67 32 39 42 52 46 40 60 50 41 37 53 66 68 65 62 74 96 90 80 65 81 98 87 68 29 88 96 77 52 53 91 94 85 100 88 88 84 92
25 32 44 58 67 56 68 71 68 47 28 37 52 63 47 50 59 47 44 54 53 60 53 42 46 61 68 90 78 67 93 92 73 44 72 86 88 55 60 86 64 93 96 90 96 96 88
26 28 36 45 68 59 67 70 69 69 27 32 48 66 70 52 70 57 51 49 44 42 44 42 44 54 86 92 100 88 77 94 83 99 99 98 95 57 63 79 62 78 94 93 94 94 83
30 29 31 35 51 62 64 67 70 66 66 35 35 55 66 64 77 62 52 55 52 47 40 38 40 45 74 86 92 96 83 98 81 92 99 97 92 65 64 74 54 92 66 88 81 66 61
39 29 30 36 51 64 66 55 63 62 63 66 29 37 57 67 63 69 58 57 60 57 44 36 39 42 57 66 69 96 100 91 82 80 98 98 96 81 80 76 76 62 63 48 73 66 82
38 24 24 30 49 62 68 59 60 60 57 63 66 24 45 60 55 88 64 58 55 43 38 31 34 34 36 37 39 86 98 92 77 68 93 99 98 81 62 67 63 63 57 63 82 73 67
29 14 14 20 34 44 66 59 55 62 52 55 63 28 41 61 53 79 78 65 68 62 46 31 36 43 43 44 46 36 85 98 89 99 98 99 95 80 84 85 76 63 64 70 80 80 75
15 8 6 12 19 34 50 52 44 53 47 49 60 44 31 59 58 69 82 74 76 62 58 58 51 46 46 55 58 38 78 93 97 97 99 93 94 89 88 100 88 71 60 58 65 74 77
9 6 5 7 10 25 39 48 46 40 41 43 56 53 26 53 62 62 78 77 71 78 82 98 88 97 90 77 87 51 72 88 97 99 99 99 94 90 88 96 88 84 79 67 68 69 79
7 6 6 7 8 17 36 37 43 39 36 37 44 59 24 50 58 62 69 75 81 89 93 100 88 84 84 96 94 98 50 72 97 98 97 98 91 78 86 89 81 80 78 77 76 63 68
6 6 6 6 7 12 30 36 34 34 41 41 41 57 26 49 51 56 70 79 79 88 96 99 92 97 97 97 76 86 82 99 95 98 99 94 99 89 92 82 73 77 78 71 63 67 82
4 4 5 6 7 11 25 32 32 32 36 40 46 54 31 49 48 51 63 74 74 86 86 94 97 94 96 100 100 96 96 96 98 98 99 97 100 94 92 89 81 80 79 93 91 93 91
3 4 5 6 8 9 24 32 32 29 33 39 44 51 35 50 45 51 51 69 76 88 99 98 99 99 88 94 98 98 98 97 96 92 99 97 100 91 89 86 81 81 78 72 86 95 81
3 3 5 6 8 8 16 29 32 31 34 39 44 53 36 47 46 49 55 70 80 90 98 89 98 100 100 98 95 98 100 94 90 75 76 87 98 97 100 84 79 85 86 74 73 75 81
3 3 5 6 8 8 12 23 31 29 32 38 47 56 45 48 47 52 66 74 82 90 98 100 92 88 91 100 99 91 96 92 91 77 69 76 91 99 98 92 90 80 77 88 79 92 81
2 3 4 6 8 9 13 20 29 30 30 41 52 49 57 51 61 71 76 82 88 90 90 91 90 88 88 86 96 99 90 90 84 88 78 70 71 99 100 100 99 92 97 90 81 76 82
2 4 4 5 8 10 16 22 28 32 33 41 54 52 69 64 90 94 91 82 87 89 86 83 89 88 87 87 88 91 94 94 87 87 86 85 84 99 100 98 99 97 93 93 91 94 84
2 3 4 5 7 10 20 27 31 33 33 41 54 48 60 63 95 96 95 82 72 73 79 83 85 84 82 83 81 83 86 84 89 96 97 95 98 99 100 94 96 99 96 87 90 94 83
2 3 3 4 5 11 24 29 31 32 33 39 51 48 50 81 95 96 90 83 74 76 70 70 75 73 79 82 78 82 87 89 96 92 92 98 86 82 75 73 81 96 96 98 99 99 88
2 3 3 3 4 10 23 27 28 28 32 37 45 46 53 95 94 90 89 90 88 88 80 66 70 73 87 82 79 76 83 87 90 94 96 95 83 74 73 71 66 70 74 87 100 88 99
3 3 3 3 3 9 20 26 28 29 33 42 46 51 40 50 72 84 82 96 86 95 88 94 86 79 87 82 77 75 72 76 78 87 90 88 81 68 65 74 74 72 69 72 72 81 92
3 3 3 2 2 7 17 22 25 28 36 40 46 49 54 44 76 92 93 96 91 99 81 86 93 94 92 91 87 81 81 77 69 69 78 85 77 72 63 65 73 68 39 48 52 49 42
3 3 3 2 3 9 15 21 25 28 35 42 44 47 57 56 49 66 96 93 97 84 84 100 88 92 90 89 93 90 84 82 81 78 74 72 75 75 69 70 85 35 42 43 47 42 49
3 3 2 2 6 16 19 20 23 31 39 44 51 53 56 63 63 60 72 89 85 89 89 98 98 84 98 90 95 93 93 88 87 87 85 83 83 78 72 92 56 30 31 49 59 48 51
3 3 2 3 8 15 18 21 26 35 44 49 53 58 62 62 63 71 58 65 71 66 88 95 93 92 94 98 98 87 76 74 83 85 91 94 90 84 92 78 92 62 79 72 68 58 82
3 2 2 4 6 10 16 18 21 37 46 55 61 63 65 62 59 62 71 77 66 45 58 98 95 93 93 89 97 96 80 77 81 86 89 92 94 95 83 92 74 54 58 66 75 67 79
2 2 3 4 6 9 12 11 14 35 48 59 64 73 72 74 64 61 64 70 79 52 74 93 94 96 98 96 92 91 94 81 79 80 80 76 87 84 87 91 82 59 63 62 65 64 76
2 2 2 2 3 4 5 5 12 30 46 55 64 69 67 59 60 64 63 67 77 82 53 83 92 93 85 90 98 92 95 98 84 82 75 83 73 71 68 56 57 59 65 66 65 67 76

GFSGBSN_700_rhum_054.txt.gz
RH
14 15 26 36 36 52 50 66 68 67 45 29 33 51 61 46 61 46 37 38 48 50 63 72 77 75 66 64 70 76 75 76 96 72 99 99 95 52 29 42 68 75 88 91 88 85 78
23 16 27 38 36 51 54 64 71 68 65 30 30 48 62 60 65 50 43 41 46 50 50 48 57 85 78 82 68 79 97 69 97 78 78 99 96 62 42 39 72 87 95 87 91 83 81
33 26 24 40 39 48 57 57 62 65 66 65 39 37 55 67 59 58 50 44 42 42 46 47 43 48 54 67 76 76 76 94 86 70 69 97 100 82 47 42 64 88 96 92 94 88 90
31 32 25 35 42 56 59 59 63 60 64 62 68 32 41 67 52 68 54 46 47 42 39 41 42 47 55 93 90 77 61 95 74 75 75 81 92 93 68 55 75 89 96 93 96 95 90
47 31 26 23 34 49 58 53 62 60 63 60 64 66 26 61 54 75 54 49 47 52 45 39 44 55 73 81 97 80 58 97 74 66 79 97 100 95 81 77 85 99 85 91 79 79 82
30 19 18 17 17 30 40 37 47 52 58 55 59 67 28 56 56 73 54 49 38 39 40 42 51 65 61 61 86 99 68 93 94 56 100 99 98 93 98 83 79 88 91 87 72 76 100
23 17 10 11 12 19 38 39 45 46 46 50 50 63 36 50 61 64 61 46 39 28 37 38 44 46 55 52 62 97 92 98 94 78 98 98 97 80 74 76 64 57 73 78 83 80 80
14 9 5 6 8 15 31 38 40 44 42 38 43 63 42 42 63 68 78 44 37 34 50 53 54 53 48 46 45 86 93 97 91 91 98 96 91 72 79 85 70 56 49 57 60 85 76
8 4 4 4 6 10 22 32 40 36 43 34 38 55 53 38 59 65 81 57 50 53 75 87 83 64 74 83 79 66 96 97 98 100 98 100 83 81 76 88 90 88 51 57 58 81 87
6 3 4 3 4 8 16 28 34 32 33 38 35 45 60 36 60 58 75 83 64 78 82 94 98 96 97 90 89 84 79 95 96 82 100 95 96 88 78 93 86 86 77 63 66 67 86
3 3 3 4 5 6 11 21 31 31 30 36 39 44 57 36 59 62 64 85 86 91 92 90 92 94 85 96 73 88 72 72 86 76 98 98 88 93 77 88 84 85 78 77 73 76 80
2 3 3 4 4 5 7 14 23 28 28 31 37 45 56 39 56 58 63 83 81 81 92 98 98 98 98 98 98 96 93 73 94 92 98 100 98 92 84 84 96 83 84 82 76 74 81
3 2 3 4 4 4 6 9 18 28 30 30 36 41 53 40 58 60 58 75 79 84 90 92 93 97 98 100 100 99 94 95 98 98 99 98 99 94 87 96 90 83 80 91 88 92 92
3 2 3 4 4 4 6 8 14 23 28 28 36 40 50 42 51 54 62 77 84 97 99 94 97 95 96 96 98 96 98 99 100 92 98 99 99 92 99 92 87 88 81 74 86 97 82
3 2 3 4 4 4 6 8 14 21 26 26 37 47 51 46 52 62 75 79 91 100 96 95 95 92 86 94 98 99 98 97 99 97 89 94 98 96 95 95 85 89 92 76 66 78 80
3 2 3 3 4 4 6 9 15 20 26 28 42 52 52 50 58 82 78 86 94 100 98 93 96 99 98 84 95 99 89 91 97 91 83 79 94 97 98 92 90 75 79 84 77 89 88
3 2 3 3 4 3 5 9 16 23 25 28 47 51 56 59 70 94 95 89 100 100 93 93 96 97 99 98 91 87 85 91 96 89 79 73 81 97 98 100 95 94 90 84 78 75 86
3 2 3 3 4 3 4 9 18 27 26 30 45 52 62 73 94 100 100 100 100 97 87 78 91 94 93 92 97 98 86 92 88 84 82 70 73 100 100 98 99 95 90 79 79 89 85
3 2 3 3 3 3 5 10 17 18 26 29 39 50 59 65 98 99 99 98 90 81 76 83 85 85 88 87 90 94 96 97 80 79 85 77 87 99 99 99 98 100 99 100 94 88 86
2 2 3 3 3 3 5 9 17 18 22 30 35 47 58 61 99 99 98 91 84 86 76 74 78 77 82 84 85 87 90 98 99 100 97 86 85 80 73 72 72 88 89 100 100 99 89
2 2 3 3 2 3 6 8 14 16 19 30 33 40 52 74 97 99 94 91 90 96 89 74 74 70 79 86 84 73 81 87 97 98 92 92 92 82 85 85 78 71 76 83 100 73 99
2 2 3 4 2 3 6 8 12 15 18 27 31 36 44 53 78 94 96 94 94 97 86 89 86 79 86 81 79 83 81 78 81 85 89 96 94 83 78 69 71 72 67 70 76 79 96
2 3 3 3 2 4 6 8 11 12 17 27 33 37 44 46 49 84 92 94 100 100 97 86 92 92 91 88 84 83 84 84 80 78 84 90 92 86 72 67 74 78 39 53 57 58 60
2 3 3 3 2 5 6 7 9 14 20 31 36 41 45 51 54 71 91 100 100 99 99 100 91 92 90 93 94 89 86 85 84 82 81 88 87 83 71 71 73 42 44 46 49 44 54
3 3 3 3 2 6 5 6 11 18 26 37 40 42 48 52 60 65 72 95 97 97 96 93 98 92 99 88 96 94 91 92 88 89 90 89 87 79 75 83 53 35 54 58 57 47 64
3 3 3 2 4 4 4 6 9 18 30 40 45 49 50 54 57 63 60 61 74 87 90 94 95 98 99 93 95 92 81 81 88 91 95 92 93 89 87 84 84 51 81 78 73 68 86
3 3 3 2 3 3 2 4 6 17 34 43 46 46 51 59 57 59 64 71 64 64 62 66 87 94 96 87 94 93 87 81 83 84 86 91 87 94 89 81 69 54 62 62 66 68 68
4 3 2 2 2 2 3 4 7 20 36 44 49 46 53 54 59 60 59 60 67 76 57 69 77 92 96 95 95 94 94 87 86 86 84 81 84 82 92 84 78 61 68 62 66 68 66
3 3 2 2 2 2 3 4 6 19 37 46 48 46 54 59 62 59 58 59 67 77 69 62 90 81 83 87 96 92 90 100 91 84 78 86 83 79 73 63 63 67 71 72 74 72 74

GFSGBSN_700_rhum_057.txt.gz
RH
16 12 8 9 18 31 41 46 54 52 52 61 63 53 30 46 51 59 48 39 31 42 50 56 60 63 69 63 55 66 74 67 95 98 96 99 98 84 43 51 58 87 99 93 100 92 93
12 16 12 8 14 28 37 42 48 54 51 49 55 61 48 35 56 61 54 45 35 38 45 40 37 44 41 50 66 57 61 70 70 98 97 95 97 87 56 61 51 72 99 99 96 83 81
18 10 8 8 8 24 28 31 36 46 47 54 53 56 65 28 59 59 62 50 41 40 37 40 40 40 38 47 53 65 49 65 60 99 91 100 99 92 71 57 82 72 84 87 82 86 82
11 9 7 8 7 14 21 26 30 37 42 45 54 52 58 34 56 55 66 52 42 45 41 37 36 38 44 81 94 58 53 77 90 98 94 100 100 90 72 72 78 87 80 80 74 83 92
14 14 7 6 6 9 16 21 28 32 39 32 45 45 57 45 53 54 67 48 39 35 36 36 35 38 58 73 97 78 57 70 82 93 97 100 87 93 80 75 70 90 78 83 79 83 89
11 21 6 5 5 6 12 14 25 29 35 35 29 42 58 53 47 58 70 43 36 26 30 31 38 43 46 84 96 78 57 87 85 94 85 97 98 95 91 70 78 78 84 85 81 76 95
20 15 14 5 5 5 10 14 21 31 30 33 30 36 51 58 41 61 73 46 53 31 29 28 33 40 48 86 98 99 68 98 92 99 79 99 96 95 88 76 69 51 80 97 96 79 91
32 14 13 5 4 4 7 11 16 26 29 31 31 36 44 58 38 64 70 52 45 39 68 65 45 44 51 70 94 100 83 92 96 98 77 99 96 99 98 89 63 75 88 90 92 85 82
94 20 9 4 4 4 5 8 12 22 27 26 29 39 39 53 35 62 70 74 59 84 84 97 90 68 87 90 80 99 96 98 98 81 79 98 98 96 95 98 74 70 67 77 77 86 90
66 24 7 3 4 5 5 6 9 16 23 25 28 37 40 52 37 55 66 79 81 73 82 96 98 98 96 82 95 100 96 97 99 69 98 98 99 92 83 90 84 84 62 48 54 53 78
56 9 3 3 4 5 5 5 8 12 20 24 29 35 42 51 41 56 66 82 89 92 92 95 98 82 82 94 97 97 100 96 79 78 97 99 84 91 78 73 90 82 86 69 62 68 76
17 6 3 3 4 5 5 5 7 12 15 23 26 34 40 50 45 54 62 77 83 90 96 98 99 95 97 98 86 93 87 82 78 68 88 100 86 96 69 78 80 83 87 80 79 84 82
16 6 2 3 4 4 4 5 7 11 14 21 26 34 41 49 50 51 53 76 84 90 97 88 96 97 97 100 89 98 74 72 80 59 78 94 100 94 90 88 93 86 88 94 86 85 83
33 6 3 2 3 4 4 4 9 11 14 21 26 36 43 50 49 44 56 83 90 95 98 85 88 92 95 97 100 90 87 77 88 66 80 98 99 93 93 85 87 85 75 71 86 91 81
39 5 3 2 3 4 3 4 11 12 15 21 25 41 46 51 52 58 76 90 96 97 98 90 95 86 97 99 97 98 99 99 92 95 98 96 99 99 95 88 83 94 80 72 66 79 77
85 4 3 2 3 4 3 5 11 15 19 22 26 44 50 54 65 78 80 93 99 100 94 95 97 100 100 94 100 98 98 99 100 97 97 94 98 95 98 93 96 88 80 83 79 87 83
87 4 3 2 3 4 3 5 10 15 18 23 27 42 52 59 78 99 97 98 100 95 96 93 92 97 96 97 92 95 98 100 98 98 83 78 84 100 99 96 93 89 91 81 78 73 78
92 4 3 2 3 4 2 4 9 15 16 24 27 38 48 62 92 99 100 99 98 96 89 95 97 97 97 93 95 100 95 94 92 86 81 70 78 100 98 95 100 98 86 83 78 85 84
95 5 3 2 3 3 2 4 8 14 16 19 26 32 44 58 95 98 98 98 94 94 86 87 96 97 94 85 86 97 92 90 88 89 82 75 85 96 95 88 89 91 89 89 86 83 82
93 5 3 2 3 3 2 4 7 12 14 19 28 32 45 56 90 98 96 95 97 89 77 79 80 83 88 88 79 81 86 100 100 96 83 80 80 76 73 72 77 90 94 94 97 95 85
90 4 3 3 3 4 2 3 7 10 11 18 29 29 38 55 79 98 96 97 96 96 80 70 69 69 77 85 84 75 84 100 100 100 99 92 88 85 84 83 82 78 78 89 99 98 100
95 8 3 3 3 4 2 4 5 7 10 19 27 30 36 45 64 89 99 100 97 97 91 85 73 69 74 80 80 86 81 82 88 94 97 93 87 84 80 74 70 66 65 69 71 74 100
92 12 3 3 3 3 3 3 4 7 13 24 31 35 37 40 45 54 93 100 98 92 92 94 79 87 82 77 81 82 81 82 81 82 85 89 87 86 77 66 61 48 37 37 43 47 54
82 9 3 3 4 3 3 3 4 8 16 30 33 37 40 43 46 54 86 100 92 99 94 92 86 90 92 92 89 88 90 85 81 78 79 92 92 87 81 71 84 47 46 41 41 38 49
51 15 3 3 4 2 3 3 4 9 21 31 36 37 38 43 48 56 66 95 100 98 98 96 92 92 92 90 87 93 94 91 91 90 89 86 85 83 80 83 59 48 62 66 66 65 84
28 6 3 3 3 3 3 2 3 9 22 34 37 39 39 45 50 55 61 69 89 97 96 98 100 98 99 96 88 89 89 89 93 92 90 89 92 96 89 86 78 60 70 65 66 83 78
29 7 3 3 3 3 2 2 4 11 23 35 37 38 40 47 50 55 62 66 62 60 67 74 94 90 98 94 90 94 90 82 89 84 83 87 85 90 90 90 69 62 65 69 70 80 79
56 16 4 3 3 2 2 2 4 14 25 37 39 37 40 47 52 55 58 63 67 72 66 71 70 85 97 96 91 98 98 90 90 91 88 84 85 84 97 89 76 73 78 87 87 78 77
57 6 3 3 2 2 2 2 4 14 31 41 40 41 42 49 51 54 55 58 61 64 76 66 94 89 91 98 95 91 90 97 92 86 87 92 88 84 77 70 70 78 82 85 86 85 82

GFSGBSN_700_rhum_060.txt.gz
RH
31 20 11 16 10 12 11 16 22 27 34 37 46 45 52 61 39 41 49 41 31 25 29 36 37 45 51 54 54 53 63 60 64 99 94 86 86 90 88 69 93 100 100 90 100 95 83
41 23 11 22 10 10 10 14 22 27 36 36 38 48 51 55 54 40 50 53 34 27 26 31 35 33 38 38 45 57 47 55 67 95 100 92 99 97 97 89 91 68 100 92 79 91 87
42 25 16 21 13 6 10 12 18 23 34 39 33 39 47 51 60 38 48 58 39 24 30 29 32 34 34 43 54 41 49 53 70 94 98 98 97 99 100 95 99 94 98 99 80 94 84
52 16 12 28 20 8 7 11 16 20 28 37 36 30 42 50 60 36 52 60 38 25 26 29 31 34 41 65 78 73 48 48 62 86 99 96 98 99 100 92 77 88 96 95 85 88 80
49 37 21 19 20 11 8 9 12 19 27 31 32 37 38 44 58 39 54 61 40 25 22 27 30 37 53 63 98 76 57 49 65 80 98 98 99 97 77 84 91 97 66 77 90 75 75
73 56 64 63 14 11 7 8 10 15 24 29 32 36 38 39 55 40 55 65 43 32 22 24 33 40 48 82 98 83 68 74 94 81 100 97 98 96 85 85 71 73 66 66 76 77 92
96 65 94 75 16 16 6 7 8 11 17 25 30 32 38 40 51 39 56 72 49 46 50 50 54 49 45 91 99 99 74 81 91 98 100 94 98 98 91 79 62 64 70 74 76 94 78
90 67 95 69 9 13 5 6 7 7 13 24 29 30 38 41 50 42 58 74 53 69 76 88 71 50 59 89 97 67 73 98 98 97 96 96 99 87 98 95 77 76 70 72 92 73 80
91 100 95 46 6 4 4 5 6 6 11 19 28 30 36 44 51 46 56 64 71 60 79 98 92 80 82 91 97 83 91 91 98 92 89 88 83 98 99 84 81 79 70 85 73 84 87
86 100 84 19 5 3 4 5 5 5 10 20 25 27 37 45 44 50 55 66 80 75 82 97 92 94 90 87 97 96 93 85 98 98 81 88 91 96 100 87 81 90 87 74 72 79 63
87 100 72 12 5 3 4 5 5 5 10 20 23 24 37 43 47 51 53 62 78 82 85 92 98 83 84 89 88 100 98 100 91 88 82 80 98 99 100 90 77 82 66 80 72 63 66
94 98 66 13 4 3 4 4 4 4 11 19 22 24 38 44 48 44 50 64 76 82 92 98 94 90 85 94 94 97 94 95 92 84 98 99 98 99 99 86 80 71 66 65 69 70 66
97 92 85 21 4 3 4 4 3 5 12 19 22 26 41 46 50 40 48 72 80 94 96 83 97 98 96 96 90 94 95 78 79 84 97 98 98 91 89 83 91 79 73 74 72 79 57
94 93 91 20 4 2 3 4 3 5 12 20 22 31 40 49 45 40 51 83 93 87 93 80 92 97 95 84 98 83 90 97 66 69 76 98 99 97 80 90 84 79 63 58 60 55 46
96 100 92 59 4 2 3 4 3 5 10 20 24 33 41 46 49 50 79 93 83 90 93 89 89 96 98 98 92 98 98 93 80 51 70 98 99 99 90 91 80 84 85 67 68 68 60
99 98 97 89 4 3 3 4 2 5 9 16 24 31 45 47 54 78 89 92 93 88 96 97 98 98 97 98 98 99 99 98 96 92 88 92 98 99 94 94 91 75 80 71 73 75 56
100 100 100 93 4 2 3 4 2 5 9 16 22 33 49 55 66 99 98 96 90 93 98 94 97 100 100 99 97 100 100 99 94 96 87 89 94 100 96 96 93 87 90 80 72 72 56
98 100 100 97 5 2 3 4 3 5 8 17 19 30 47 50 96 98 90 92 93 86 82 88 95 95 92 89 98 89 98 100 100 97 97 92 97 99 99 87 86 89 89 82 67 76 76
99 100 98 100 6 2 3 3 3 5 7 13 18 26 38 50 92 96 93 92 95 88 86 87 90 84 88 89 95 91 93 97 93 97 97 80 94 97 98 98 98 96 87 83 81 76 85
100 100 98 98 5 2 3 3 4 5 6 12 20 27 37 51 90 99 85 88 98 89 81 86 86 86 90 88 83 84 89 96 98 97 86 80 74 75 64 68 78 88 94 84 84 90 77
100 100 100 77 3 2 3 3 4 4 5 12 20 25 33 53 74 93 92 90 95 92 77 73 75 82 84 83 82 91 81 89 99 95 86 85 82 76 69 70 72 73 76 91 90 70 88
100 100 100 34 3 3 3 3 4 4 5 15 22 28 33 44 61 87 90 92 90 94 78 81 70 79 80 78 77 78 90 95 92 89 89 92 85 87 84 78 74 71 70 74 74 83 94
100 99 99 38 4 3 4 3 3 4 7 17 24 30 37 40 54 76 82 86 93 93 94 84 81 78 85 79 76 77 80 83 86 89 91 92 91 83 87 72 62 57 47 52 51 48 66
100 100 100 33 4 3 4 3 3 4 10 20 24 31 39 40 46 52 68 96 95 83 83 90 81 86 89 89 88 87 87 82 80 88 88 91 91 86 81 74 69 49 50 48 47 53 50
100 100 98 45 5 7 4 3 3 4 12 24 26 32 38 42 47 55 76 89 91 95 92 88 91 87 91 97 88 92 94 92 91 89 86 86 89 82 86 77 61 58 68 68 70 95 87
99 100 99 18 6 5 4 3 3 7 15 25 27 34 40 42 46 54 63 80 83 90 97 89 81 77 91 94 89 90 85 93 94 90 91 88 85 87 84 79 59 66 65 60 65 85 79
99 100 81 16 5 5 3 2 3 10 19 26 28 33 40 44 45 50 54 58 61 72 83 89 86 91 96 93 88 97 94 81 94 90 89 99 90 93 92 85 74 70 79 78 83 89 80
99 100 74 11 4 4 3 2 4 12 25 26 28 33 40 42 46 50 52 55 56 57 58 62 70 78 90 92 93 88 96 85 86 86 88 96 94 93 96 90 79 82 86 84 79 78 78
100 100 63 16 4 4 3 2 6 18 29 31 31 33 44 41 45 49 51 52 52 56 66 66 70 69 82 97 87 88 92 87 85 87 90 97 94 97 89 92 79 80 87 87 90 89 85

GFSGBSN_700_rhum_063.txt.gz
RH
83 71 47 26 26 19 14 12 15 16 27 32 34 31 31 46 44 54 36 50 56 47 26 20 27 30 32 36 75 48 63 73 94 82 95 99 93 77 96 88 98 98 100 90 94 90 90
100 83 60 31 25 23 24 21 13 16 21 30 33 33 32 38 42 57 36 52 58 52 30 23 24 28 29 35 38 39 50 58 62 80 96 99 96 96 92 76 92 87 92 92 99 86 82
99 92 60 37 65 64 35 27 18 12 16 22 30 32 37 34 43 59 34 54 61 48 27 21 23 27 26 32 36 50 47 46 57 65 89 98 97 98 86 71 76 97 87 99 100 70 88
100 98 91 77 72 71 39 18 22 12 14 17 25 30 35 37 40 54 37 56 64 45 28 19 24 28 29 36 48 55 70 40 46 70 71 98 90 99 88 76 80 88 98 100 99 100 97
84 94 98 99 70 87 68 20 13 9 14 14 23 28 32 38 39 50 40 58 67 51 22 20 25 28 68 44 63 85 68 85 54 66 94 98 97 98 91 85 87 89 79 98 96 82 99
98 99 98 91 78 100 91 12 6 7 14 12 19 28 30 38 41 47 44 61 69 53 37 48 39 40 82 56 86 76 58 74 70 77 97 97 98 99 95 87 78 67 60 62 88 96 95
100 100 100 90 98 100 81 8 5 6 11 12 18 26 30 38 42 46 48 64 72 58 68 79 89 42 49 92 86 74 64 70 80 95 96 98 96 98 85 73 50 49 51 40 59 96 88
100 98 97 88 98 100 41 7 5 6 9 12 17 23 30 36 45 43 51 66 76 63 78 87 80 64 77 96 91 74 59 86 95 97 98 99 97 98 78 67 58 48 51 52 54 89 88
100 98 88 88 99 97 28 7 4 5 7 12 16 24 30 36 42 41 54 68 75 70 75 90 87 83 84 96 91 75 85 94 95 98 93 92 93 97 89 86 65 52 53 65 72 82 93
98 99 92 89 100 96 32 8 4 5 6 10 16 24 29 36 39 44 53 60 81 83 83 96 96 88 82 95 97 97 96 96 98 98 99 97 97 96 86 73 63 60 57 55 61 81 64
99 100 86 93 100 93 34 6 3 4 5 9 16 22 31 38 42 48 48 62 77 78 91 90 100 82 85 96 96 90 85 92 99 88 73 92 90 96 97 74 64 65 62 70 81 71 49
100 100 98 100 100 93 23 6 3 4 5 9 17 23 36 39 44 47 49 70 78 90 89 89 82 82 92 84 89 100 83 72 90 68 63 89 89 99 96 84 79 70 83 84 78 58 61
94 100 99 100 99 99 31 6 3 4 5 8 17 28 37 40 43 46 58 76 93 93 81 97 96 91 84 98 97 94 95 87 83 79 91 78 92 97 98 78 66 70 70 63 63 71 57
67 93 100 100 99 99 70 8 3 4 5 7 14 30 34 40 44 47 72 83 95 94 96 84 96 98 96 95 92 81 100 88 91 94 97 98 98 98 98 84 85 67 51 50 54 51 42
64 82 100 100 100 99 98 8 3 4 5 7 13 30 34 40 45 57 86 96 85 100 92 100 99 98 96 93 96 81 85 98 94 80 97 97 99 87 93 94 82 83 82 70 60 50 43
79 83 100 100 100 99 99 7 3 4 5 7 16 30 35 46 50 76 92 95 90 98 94 96 96 94 98 98 98 94 96 87 84 61 70 95 98 93 80 90 86 86 78 62 73 65 42
88 96 98 100 100 98 100 8 3 4 4 7 16 28 37 47 57 84 95 93 87 94 92 100 99 94 98 98 99 97 94 95 89 76 64 98 93 99 96 97 89 84 89 76 66 63 53
95 99 98 100 100 100 100 11 3 4 4 7 15 26 34 46 77 86 90 88 88 98 85 96 97 99 100 100 99 100 98 100 91 92 99 88 99 100 98 96 95 89 75 68 59 69 58
99 99 100 100 100 100 98 17 3 3 4 6 14 23 34 42 95 90 82 90 86 88 76 87 95 83 84 99 96 100 99 99 100 100 96 92 97 96 98 98 88 96 88 83 72 81 77
98 98 100 100 100 100 85 9 4 3 4 6 15 25 35 40 66 90 84 82 89 78 75 80 88 84 89 94 93 100 90 97 93 96 93 87 95 88 72 70 76 90 83 84 79 88 68
100 100 100 100 100 97 60 5 4 3 4 6 18 30 31 37 61 84 86 89 97 89 73 73 72 82 88 87 94 99 95 93 98 93 92 92 88 72 73 64 68 77 82 80 89 84 80
99 100 100 100 100 94 31 5 4 4 3 7 17 27 33 33 48 76 94 96 100 82 88 72 76 74 82 89 86 98 100 98 99 99 90 85 84 79 74 72 72 72 71 87 84 83 83
98 100 100 100 100 82 23 6 4 4 3 8 21 31 35 34 52 84 96 98 90 83 81 69 65 88 77 76 73 73 80 87 94 99 99 92 85 85 88 77 70 61 61 76 84 86 87
99 100 100 100 100 61 15 6 4 3 4 10 24 31 35 36 48 93 76 83 91 84 83 79 75 94 80 80 81 80 78 78 80 84 96 97 98 88 91 69 69 60 49 48 60 78 79
98 100 99 100 99 44 16 7 4 3 5 14 25 30 33 38 43 52 60 78 85 85 86 81 77 77 84 88 95 95 93 93 83 78 81 89 94 94 85 66 58 72 62 75 81 99 84
99 100 100 100 99 53 22 12 4 3 8 18 26 29 33 37 43 47 62 84 96 89 90 85 77 76 79 86 96 76 73 79 92 86 84 79 84 81 81 69 52 82 72 59 63 86 85
98 99 100 100 99 56 21 10 3 4 12 22 26 30 34 37 40 49 75 80 78 90 100 82 75 70 77 97 91 77 75 83 82 82 97 97 91 88 88 77 68 74 70 72 75 84 87
99 99 100 100 99 31 14 11 3 7 16 24 26 30 34 37 41 47 54 62 72 82 90 80 81 84 83 88 96 93 85 85 83 85 88 85 83 79 85 88 72 71 83 84 85 74 66
98 99 100 99 100 18 40 7 3 12 21 25 27 31 35 40 39 46 50 53 54 54 57 59 66 64 76 83 83 98 99 93 94 86 80 94 90 86 88 88 76 72 77 74 74 70 66

GFSGBSN_700_rhum_066.txt.gz
RH
92 89 100 99 93 63 30 58 33 36 19 9 13 20 23 31 32 39 52 55 38 51 56 34 21 22 27 29 63 34 36 53 80 93 98 99 100 73 95 87 90 94 79 86 83 84 96
96 93 99 100 98 99 62 64 54 67 15 7 10 15 24 30 34 37 52 45 42 55 54 34 22 26 27 29 47 43 35 43 69 95 95 99 96 71 62 85 88 82 85 84 98 77 100
91 91 88 83 100 99 86 88 88 86 12 7 9 14 23 28 32 38 50 39 51 58 48 37 23 28 26 33 42 34 39 44 46 79 96 93 98 98 98 95 88 84 86 83 88 89 92
86 97 91 98 99 100 99 97 99 86 10 7 8 12 20 28 32 40 46 40 54 63 48 24 21 26 24 44 47 46 56 55 38 48 74 90 99 96 98 73 85 80 82 89 90 74 100
74 82 95 100 100 100 98 84 100 81 10 6 8 11 19 26 33 40 46 42 54 66 46 36 48 37 52 60 78 82 79 79 60 45 73 91 98 99 99 89 76 84 95 96 90 98 98
69 77 86 100 100 100 100 90 97 59 10 6 7 10 19 25 35 39 46 45 57 65 56 70 72 82 88 76 74 85 85 84 92 55 90 90 98 98 98 93 86 80 89 97 80 74 88
52 60 71 95 100 96 99 99 95 57 9 6 6 11 18 23 36 42 44 52 63 76 67 81 97 53 52 93 94 91 80 77 78 81 74 92 98 94 90 78 74 76 79 90 80 82 97
57 59 53 60 100 100 95 81 99 61 9 5 5 11 19 22 38 42 43 61 68 82 66 86 86 72 76 90 95 75 59 76 77 92 91 98 97 90 89 96 68 66 67 75 80 86 86
46 46 78 62 77 100 99 100 91 52 7 5 5 10 19 24 38 41 49 60 72 85 72 93 97 82 84 96 86 59 57 81 83 98 96 99 96 97 99 93 74 53 51 50 89 89 81
30 54 46 92 63 100 100 100 99 33 6 5 5 10 20 29 39 43 51 58 77 85 94 99 98 89 81 88 98 92 76 90 91 97 98 93 95 98 97 87 59 52 50 65 73 71 77
15 46 52 68 92 94 98 100 100 33 6 4 6 10 22 30 37 48 46 60 79 78 99 93 80 72 86 99 98 86 78 97 98 98 96 96 98 98 94 63 53 57 83 62 67 63 57
12 55 62 52 99 68 99 100 100 49 6 4 6 10 22 34 38 44 48 73 77 96 83 99 69 79 97 94 99 80 88 97 96 88 85 92 98 79 80 70 63 56 60 73 73 73 72
30 83 66 93 92 62 100 99 99 86 7 4 6 10 23 34 34 46 62 76 97 96 85 96 88 83 93 98 100 94 96 97 88 87 95 89 93 89 83 84 77 72 69 76 78 78 76
84 100 81 89 90 81 99 100 100 98 8 4 7 11 21 32 39 51 71 94 94 93 94 95 90 80 99 90 99 99 98 90 88 87 89 92 94 97 94 76 75 75 50 57 63 81 65
93 100 100 86 93 98 89 100 98 97 8 5 6 12 22 32 40 60 81 87 88 81 97 98 99 94 92 89 99 90 99 75 87 90 98 97 98 95 85 81 73 68 66 64 59 47 58
95 100 100 97 97 95 90 100 94 93 7 5 8 12 25 32 47 68 98 98 98 92 92 90 98 94 99 97 96 85 92 81 76 71 92 87 95 95 92 85 85 74 77 65 60 70 50
100 100 100 98 100 100 93 100 94 88 6 6 7 11 26 33 54 88 98 99 100 93 87 95 89 91 91 91 93 93 94 84 72 62 67 92 80 98 91 81 87 90 88 70 63 62 84
77 99 100 99 100 98 93 100 100 91 6 6 8 13 24 33 59 90 99 84 92 95 92 100 98 96 96 90 91 95 97 92 83 59 85 85 74 99 96 91 86 82 76 69 67 69 59
85 99 100 98 100 99 96 100 100 92 6 6 8 14 24 32 78 88 92 92 99 99 94 99 94 95 98 95 94 88 91 100 93 94 88 89 95 96 97 86 87 86 78 76 66 71 76
83 99 100 100 100 98 99 100 98 69 5 7 9 14 25 31 54 96 85 94 94 84 79 88 88 84 91 93 92 90 89 85 92 91 94 92 94 96 84 85 71 76 76 82 81 82 73
87 100 99 100 100 100 98 100 88 29 5 7 9 17 22 29 43 78 89 95 100 82 74 79 85 89 83 89 93 96 99 100 95 95 93 93 95 88 81 68 81 79 81 82 81 69 84
98 100 99 100 100 99 99 100 82 7 5 6 8 14 26 30 50 66 84 88 99 90 79 77 94 74 79 85 89 96 98 91 88 92 93 88 84 74 70 66 67 66 68 82 80 82 80
98 98 99 99 97 99 100 100 25 5 4 5 9 20 30 33 43 78 84 89 98 89 85 79 91 87 66 69 72 68 90 91 89 95 92 93 82 79 83 76 72 67 64 66 69 81 84
100 100 100 86 100 99 100 98 13 5 4 4 13 28 32 37 42 79 92 93 91 87 81 72 77 97 72 73 75 74 82 74 83 97 99 98 93 82 87 66 86 58 51 52 72 78 77
98 94 85 100 99 100 100 88 8 5 4 6 16 28 34 52 58 67 75 71 84 85 84 71 74 76 76 83 89 83 91 96 87 78 92 98 98 93 90 77 65 64 61 60 77 95 75
98 74 95 99 99 99 100 68 7 6 4 10 22 32 34 37 62 63 59 63 78 88 83 81 78 80 81 80 94 84 78 80 93 88 79 75 83 85 80 72 65 89 72 62 69 96 83
99 99 99 98 99 99 100 28 9 4 4 15 28 31 34 33 41 40 47 59 75 92 86 79 80 82 81 78 89 79 85 77 87 80 76 85 88 82 81 78 73 73 68 61 67 74 92
99 96 97 98 99 99 99 33 8 4 8 19 30 33 32 34 38 37 38 51 75 86 86 74 86 84 78 88 87 88 90 80 80 88 88 77 88 86 88 94 78 74 77 76 91 95 81
100 91 98 98 99 99 99 33 5 5 15 25 31 32 36 40 38 44 47 56 67 71 83 79 82 78 80 88 93 86 83 86 87 88 78 87 82 86 85 84 76 80 76 85 83 76 72

GFSGBSN_700_rhum_069.txt.gz
RH
93 89 83 91 81 91 99 100 98 92 77 85 16 6 8 10 18 24 30 33 51 38 44 52 44 28 18 19 22 23 28 36 41 65 92 74 97 98 96 99 81 89 91 81 76 87 81
97 90 96 89 79 79 99 100 100 98 92 76 36 6 8 10 16 25 31 34 47 38 51 52 45 28 17 23 28 26 28 36 44 51 98 98 91 98 97 97 97 66 98 88 88 95 91
60 75 95 99 90 83 93 99 99 99 98 82 42 6 7 10 17 25 32 37 43 44 59 51 38 19 20 28 31 42 36 40 40 48 87 97 97 97 99 100 89 98 85 77 80 85 95
57 57 63 88 99 100 89 93 100 99 99 99 53 6 7 10 17 25 34 37 41 52 63 49 40 45 40 36 46 41 52 64 67 53 81 98 96 90 97 86 99 95 90 100 100 98 82
35 42 55 59 95 100 100 82 99 100 93 98 72 6 7 11 18 26 35 40 42 57 61 56 69 68 76 58 76 76 86 86 93 70 63 89 97 98 89 76 94 99 91 99 100 100 100
8 24 42 56 64 97 100 90 81 100 94 90 67 6 7 12 18 28 37 43 46 62 59 64 77 85 76 72 95 96 89 99 97 74 80 84 98 99 98 98 97 90 91 82 100 95 94
4 8 28 57 55 88 98 93 85 93 100 90 50 5 7 13 19 29 39 41 55 63 64 67 84 79 77 85 95 94 100 87 86 76 84 87 87 90 91 96 98 95 71 94 83 96 87
3 5 17 59 73 92 98 86 100 95 100 98 27 5 7 14 21 30 38 41 54 62 66 75 92 94 97 87 91 76 82 83 83 89 94 87 85 99 94 99 98 83 86 87 100 91 81
2 3 7 27 79 89 95 98 98 63 100 100 22 5 7 16 22 33 39 48 56 72 68 81 93 93 84 95 94 74 76 86 86 88 98 97 95 92 85 97 98 88 76 74 90 85 90
2 2 4 42 99 98 90 99 100 87 100 100 26 6 7 17 26 31 46 44 60 71 74 94 86 85 91 100 99 93 82 91 88 95 97 98 99 93 96 95 91 79 66 58 70 95 99
2 2 2 6 100 100 99 92 100 100 84 100 52 6 8 15 28 34 38 42 68 69 89 96 78 81 98 98 96 92 93 98 92 96 99 99 100 83 85 73 78 71 60 62 60 80 77
3 3 2 3 94 100 99 98 98 100 78 100 89 7 9 19 26 33 40 61 71 83 83 96 81 80 96 96 76 84 98 95 99 97 97 98 99 99 96 90 88 72 61 71 80 68 74
56 24 10 4 71 100 99 100 100 100 91 99 77 7 10 18 25 37 47 69 84 75 88 84 89 89 95 92 89 84 94 97 91 90 97 97 99 99 96 86 78 65 79 94 84 76 75
88 74 75 90 43 100 100 100 100 95 74 100 79 8 12 19 30 39 58 80 76 86 94 89 84 94 87 86 93 80 92 92 87 76 84 91 94 78 77 78 75 69 54 59 82 92 69
98 94 97 98 64 100 100 100 100 98 98 98 50 10 13 21 36 44 75 84 79 80 88 96 98 89 91 94 92 86 84 90 86 85 80 97 98 88 78 70 72 58 62 61 54 54 62
95 96 88 97 60 98 99 100 98 100 96 99 19 13 15 26 41 61 95 86 90 86 91 96 98 99 94 97 87 94 98 80 65 67 83 93 97 86 84 78 74 68 74 59 57 65 59
95 96 96 97 65 98 99 99 100 100 88 92 13 15 20 25 45 77 98 94 95 91 92 87 95 93 89 98 88 98 88 78 59 57 84 78 87 97 84 81 87 76 66 61 57 64 83
86 62 87 98 91 97 100 100 100 100 90 75 15 18 24 29 58 99 98 93 94 95 97 89 92 92 79 86 84 86 76 78 60 78 68 76 71 84 86 87 87 84 70 77 61 65 58
80 46 69 97 82 99 100 99 100 96 98 48 17 18 23 32 57 98 99 91 94 95 93 94 90 88 87 78 81 86 89 94 65 65 71 69 84 92 87 82 77 81 81 71 72 67 65
56 43 75 98 93 100 100 100 100 99 99 52 16 16 22 32 63 86 97 91 98 97 85 98 89 90 95 88 83 86 92 92 84 73 72 81 80 75 81 76 68 71 64 73 76 72 67
25 48 96 95 97 100 99 100 99 96 97 24 13 13 19 26 43 86 96 89 90 75 81 89 88 92 97 84 88 95 99 100 99 90 92 84 90 88 86 85 80 69 60 70 74 61 71
34 76 99 90 99 98 100 99 99 98 74 12 12 16 23 23 47 79 90 89 93 79 73 87 87 89 89 89 85 97 98 100 95 96 94 87 83 84 82 70 73 81 74 74 78 79 76
25 96 93 92 99 97 99 100 93 98 38 9 13 15 23 29 38 68 76 89 89 89 79 79 87 83 82 87 85 84 99 90 84 92 88 86 83 79 83 81 76 72 65 68 81 83 83
21 95 99 97 98 99 99 99 100 100 26 12 19 20 27 31 39 51 78 91 96 91 74 85 79 69 74 75 82 89 94 88 85 86 83 86 89 82 84 73 75 62 60 57 67 79 83
51 97 99 99 98 98 99 99 100 80 10 18 22 27 32 34 41 75 89 89 96 94 70 70 79 75 75 79 81 80 80 76 72 82 100 94 91 89 83 74 70 65 58 47 54 65 73
93 90 97 100 94 98 99 99 99 24 13 20 24 35 39 38 50 59 87 88 82 86 79 78 76 80 81 81 84 80 76 82 86 83 82 96 98 92 82 77 78 74 73 64 64 73 79
97 98 98 96 98 99 99 99 84 12 18 20 30 37 39 38 47 54 68 74 71 84 78 80 78 81 85 83 85 79 83 83 85 80 78 84 93 91 87 81 78 80 80 71 70 71 82
93 94 98 89 94 97 98 99 45 15 19 25 35 36 38 38 42 49 52 57 57 64 66 71 82 83 82 85 88 83 83 78 79 86 85 75 79 83 87 93 90 82 80 82 82 86 93
96 97 97 98 94 99 99 99 45 17 20 30 37 41 43 45 46 48 52 57 66 70 68 70 74 72 72 81 83 84 81 81 80 85 86 90 76 84 82 87 84 84 83 80 82 86 85

GFSGBSN_700_rhum_075.txt.gz
RH
6 7 9 16 45 69 85 84 84 92 90 92 100 92 100 85 100 94 14 12 20 29 34 41 41 41 52 49 43 35 27 22 22 25 31 30 49 85 70 72 69 100 75 84 99 95 91
5 5 6 7 8 42 62 80 82 81 82 96 100 89 100 97 100 81 13 14 20 32 34 42 44 48 53 52 46 43 34 29 30 28 30 35 41 81 86 79 92 84 90 85 99 85 86
6 6 5 5 5 9 13 83 73 86 82 94 100 91 100 98 100 78 13 12 22 33 39 42 52 58 56 63 62 57 39 38 40 47 36 38 44 78 81 90 91 86 89 90 83 97 98
6 5 4 4 4 4 6 9 71 78 87 95 100 99 100 100 95 72 14 12 26 38 42 48 62 58 70 71 59 60 68 81 84 78 74 77 72 91 97 90 98 84 99 88 95 92 97
9 7 6 4 4 4 4 3 12 69 89 97 98 97 97 98 95 74 12 15 30 40 46 54 63 68 76 60 76 89 89 78 77 86 91 92 94 98 95 94 98 89 98 82 94 90 98
10 8 7 6 4 4 3 3 3 23 68 92 98 98 99 100 95 81 15 18 33 40 53 62 62 76 77 70 79 70 74 86 94 93 99 98 97 97 92 98 97 87 90 86 87 87 92
10 8 6 6 5 4 3 3 3 3 9 100 75 92 100 100 99 75 18 24 35 45 51 66 70 75 72 74 79 55 67 90 88 94 96 94 98 96 94 96 96 84 85 87 76 90 79
8 6 5 5 4 4 4 3 3 3 6 50 95 93 100 100 88 92 19 31 37 48 66 66 64 68 74 79 90 64 65 76 81 82 93 99 97 97 95 98 95 90 87 92 93 99 99
5 5 6 6 6 6 6 5 4 4 5 37 97 88 100 99 98 79 20 32 43 50 70 71 64 77 79 81 88 81 62 74 81 79 91 99 98 98 93 84 98 96 80 92 78 71 98
7 8 9 10 10 10 9 8 7 4 5 58 100 78 99 99 98 55 19 36 39 60 73 70 60 82 78 95 95 89 85 81 95 86 88 91 97 94 94 88 79 89 90 74 82 90 99
9 10 12 14 15 18 17 16 29 32 13 64 94 93 98 100 100 66 26 37 41 67 82 76 62 76 73 88 94 95 98 96 90 95 97 97 96 100 86 83 90 76 87 83 82 85 98
16 17 19 18 48 43 53 81 61 62 34 91 99 95 100 99 98 36 26 41 57 81 74 86 69 83 73 90 97 98 100 98 99 98 98 99 91 99 71 75 97 98 95 95 87 98 98
33 25 22 18 24 60 74 93 97 89 93 100 98 99 100 99 75 35 30 50 71 84 81 79 78 79 75 87 92 95 100 99 99 98 99 99 100 99 80 95 99 100 89 99 97 97 93
84 56 35 28 30 75 91 94 96 96 98 100 99 99 99 99 80 30 34 64 76 70 88 81 82 76 76 85 89 100 97 98 99 98 98 99 100 93 99 95 93 97 82 91 92 92 78
88 72 64 53 44 67 86 92 92 98 97 98 99 98 99 98 74 32 44 58 61 72 89 79 83 79 72 81 87 92 92 98 99 95 96 97 98 99 99 90 85 82 63 60 64 68 74
71 79 80 58 43 60 76 88 94 99 92 98 99 99 99 99 64 44 65 54 67 82 88 95 85 83 75 76 84 89 80 80 98 88 90 96 95 99 99 95 77 72 58 51 54 85 68
92 89 87 66 47 69 66 85 96 98 98 95 99 99 98 87 56 60 56 59 74 84 92 91 84 79 67 70 81 91 77 86 96 82 70 70 78 91 89 79 80 77 62 53 59 60 80
92 95 89 80 70 65 55 65 98 97 98 98 98 99 97 80 65 76 54 68 81 92 91 94 90 84 68 76 98 81 70 72 82 79 69 59 70 80 86 81 71 68 60 58 48 62 61
91 94 94 86 73 71 74 59 100 94 98 98 98 97 97 81 87 58 56 68 90 90 87 96 87 79 72 79 77 68 59 69 81 68 65 65 68 83 78 77 74 76 62 58 52 54 58
93 94 95 91 88 92 100 100 99 92 97 98 97 97 97 91 74 56 78 90 89 91 86 97 88 80 77 77 81 74 64 49 62 55 54 58 68 64 71 68 68 69 69 65 58 51 55
91 89 92 93 96 100 96 96 99 96 97 98 96 97 97 97 67 54 92 96 91 91 90 92 84 83 82 82 86 88 86 67 63 49 47 60 69 72 77 78 70 66 67 70 67 62 61
86 83 93 92 92 95 97 88 99 93 97 98 97 96 54 39 43 52 98 98 96 97 93 93 80 80 90 83 76 69 66 63 56 51 70 76 80 84 80 79 80 75 67 62 67 70 67
92 94 95 91 97 100 100 92 69 93 97 98 96 94 59 30 34 61 98 99 97 93 94 91 86 78 89 84 85 88 86 70 77 70 78 81 79 83 82 75 65 64 63 65 63 62 63
93 95 96 98 100 94 72 75 84 99 98 96 96 90 53 31 40 86 99 96 92 82 85 88 86 84 84 85 82 100 98 94 92 93 92 86 76 76 78 71 78 59 58 60 68 72 72
96 97 100 91 80 72 64 80 92 95 95 97 94 73 51 34 60 100 100 99 88 91 77 86 86 84 85 85 86 94 94 93 93 97 94 95 89 82 82 77 68 64 58 56 59 68 73
95 99 87 90 100 99 96 97 92 92 97 96 53 54 42 44 88 100 100 99 88 98 92 81 78 81 82 83 76 74 74 75 71 82 98 98 95 93 92 83 83 66 66 62 58 62 56
87 100 96 96 97 97 98 97 100 98 97 93 37 38 40 51 69 98 98 98 98 100 93 93 79 79 77 78 75 74 77 78 77 78 89 97 95 96 92 82 66 63 68 76 78 60 58
92 78 92 96 96 95 97 97 96 96 98 83 34 31 38 50 70 87 95 100 95 96 86 83 87 85 82 77 76 71 74 81 81 74 76 78 87 90 96 86 82 65 70 77 68 70 72
79 68 65 86 97 97 97 98 97 96 94 32 34 38 44 52 66 78 85 92 90 93 92 73 70 71 76 79 69 73 72 76 76 77 77 74 72 74 71 73 66 67 67 72 75 74 74

GFSGBSN_700_rhum_078.txt.gz
RH
10 9 8 7 6 5 5 6 7 54 76 84 84 74 100 99 100 99 97 89 18 16 16 28 33 41 40 48 55 54 44 38 32 24 22 27 27 30 27 26 45 65 27 59 59 78 84
12 10 8 7 7 6 5 5 5 7 30 84 81 90 95 98 98 100 98 70 21 21 25 28 37 40 46 60 56 57 57 50 38 32 30 32 32 37 48 52 88 66 49 47 89 84 86
19 18 16 12 8 6 5 5 4 4 8 8 81 92 78 100 76 100 100 93 22 24 32 34 40 45 53 61 68 62 57 50 46 41 37 35 36 40 50 65 75 76 91 75 88 77 88
19 17 15 14 12 10 7 6 5 4 4 4 12 97 87 96 87 99 100 91 20 28 36 39 43 55 58 69 56 54 66 80 87 88 84 74 80 64 50 59 96 80 88 97 69 78 96
18 15 14 11 10 9 8 6 5 5 4 4 6 29 96 87 100 96 100 98 23 30 37 42 50 59 67 61 66 82 84 84 87 91 86 91 99 98 96 98 99 95 94 82 92 76 92
17 16 12 10 8 7 6 6 5 4 4 4 5 21 96 96 100 86 100 98 26 31 38 48 54 57 75 82 76 84 57 75 97 93 96 96 96 98 97 98 96 84 99 82 94 75 86
11 9 6 5 5 6 6 6 6 5 5 5 4 7 70 81 86 100 100 98 33 33 40 46 54 61 71 72 81 81 54 70 90 82 93 96 100 90 94 97 92 90 96 98 93 70 68
6 4 4 5 6 7 7 8 8 8 7 6 6 9 35 99 98 99 100 90 29 35 45 57 49 59 72 78 79 88 68 68 66 75 83 89 84 83 98 98 96 98 95 89 92 73 80
3 4 6 8 9 10 10 11 12 11 10 9 8 12 53 100 100 100 99 92 36 57 48 60 55 62 74 75 95 90 79 67 75 72 76 84 77 100 99 91 98 92 71 84 92 99 98
4 8 12 13 14 13 14 15 14 13 12 11 9 8 80 99 100 100 100 87 46 54 71 65 57 67 75 87 99 97 81 82 89 93 94 88 83 93 100 97 99 95 76 70 82 72 97
13 16 23 20 20 20 20 19 19 16 20 21 46 10 58 100 99 100 99 51 45 79 78 71 61 66 78 96 97 97 100 94 86 94 99 96 93 93 99 98 92 100 85 78 82 80 84
73 76 99 90 43 40 46 34 41 50 75 77 62 76 45 98 99 100 96 52 57 86 74 73 64 72 75 89 92 98 100 98 97 97 97 96 98 93 97 91 82 87 81 81 72 80 89
45 88 93 66 72 73 66 40 74 77 88 84 86 99 98 100 98 99 61 59 92 80 69 72 65 73 77 86 88 89 98 98 98 98 98 94 96 94 83 95 99 92 79 98 95 96 99
88 91 91 86 83 86 69 74 81 74 70 86 90 98 98 98 99 98 62 91 83 64 74 69 66 77 77 78 92 90 99 98 99 95 95 96 98 89 78 97 98 98 93 87 93 93 93
86 78 90 89 86 84 72 64 74 87 90 90 88 100 97 98 99 96 82 98 54 55 64 67 76 76 76 69 83 91 93 98 99 97 98 98 98 98 98 99 94 95 90 73 76 79 82
63 83 93 86 88 88 78 67 67 92 96 97 98 100 99 98 97 90 96 65 63 67 75 71 76 71 69 70 87 92 79 93 99 99 95 92 97 100 99 95 87 76 65 61 73 85 78
58 93 92 87 88 90 83 86 80 95 97 96 98 99 98 96 97 94 100 66 72 81 88 88 85 71 62 72 83 86 83 89 99 85 81 79 81 98 93 79 74 66 58 54 59 59 74
96 94 85 81 89 91 84 80 76 96 97 98 98 98 96 96 97 100 81 78 86 87 88 88 85 85 59 63 74 72 69 88 86 76 70 73 85 88 92 81 80 73 63 54 48 65 55
95 92 88 77 84 89 88 95 98 96 97 98 98 97 97 96 98 90 73 91 100 86 88 90 88 76 62 75 84 80 74 93 82 70 68 66 76 79 79 80 70 66 58 54 51 55 53
94 96 88 85 87 94 95 98 94 99 96 97 97 97 98 97 95 78 86 98 98 88 85 90 89 75 76 76 76 72 66 79 70 66 59 62 66 59 68 62 71 70 64 59 52 48 54
93 95 96 93 95 98 96 92 84 93 96 98 97 97 87 94 89 71 100 96 89 90 86 93 94 77 76 71 74 73 66 58 63 54 60 67 66 64 66 68 73 67 67 67 63 58 56
92 95 96 97 95 97 76 65 69 77 93 96 97 96 96 54 78 91 99 88 89 87 85 93 87 79 83 79 71 74 64 59 59 51 64 67 78 78 76 77 71 65 63 64 66 67 65
95 97 96 98 98 86 68 52 37 77 87 98 94 96 87 52 80 100 99 93 95 86 87 83 84 78 80 86 85 86 79 79 73 69 79 72 78 84 79 74 67 62 71 68 61 60 66
96 96 98 98 97 74 54 31 45 77 82 88 95 97 52 59 66 98 100 98 99 95 87 93 90 83 90 85 75 94 94 88 88 92 87 82 76 74 73 72 75 63 58 57 61 59 64
97 98 98 98 99 80 54 43 68 72 73 96 96 97 59 53 76 100 98 99 94 89 95 89 91 89 89 84 92 91 90 86 90 90 92 88 84 81 80 76 67 62 58 58 56 59 63
100 93 96 97 98 98 62 38 32 53 94 94 95 58 51 59 98 100 97 90 90 87 84 94 91 89 90 86 74 72 77 76 79 84 96 89 95 89 86 80 79 66 66 66 62 60 59
98 74 85 98 100 100 97 95 97 98 92 93 83 47 47 73 83 100 99 92 92 88 89 91 86 91 90 83 68 65 67 68 67 66 75 90 89 90 86 86 72 66 64 72 75 61 58
86 75 60 86 84 87 91 91 96 96 91 71 48 41 43 54 61 96 100 94 95 97 90 83 81 85 80 85 72 63 63 65 68 67 67 71 79 83 88 87 79 62 64 71 67 68 71
62 73 58 75 77 80 79 80 89 94 98 96 44 38 41 53 67 86 99 99 94 92 97 88 79 72 77 76 63 67 65 68 71 68 68 66 66 70 66 67 62 62 62 61 63 69 72

GFSGBSN_700_rhum_081.txt.gz
RH
26 24 22 20 18 16 15 12 8 6 6 5 8 16 52 63 76 67 99 94 99 98 48 12 24 30 37 34 43 48 54 52 49 43 36 29 24 23 25 26 25 31 16 26 31 44 64
27 25 23 20 18 15 13 12 11 8 6 6 4 5 15 58 71 80 99 73 100 98 46 17 29 37 40 38 44 54 63 62 59 54 44 35 33 36 30 29 43 36 29 24 30 39 49
27 26 24 21 16 15 12 10 9 8 7 6 5 4 12 26 68 87 90 100 89 100 41 20 33 43 43 56 52 57 46 47 53 54 50 46 44 47 40 34 45 48 69 68 41 30 73
30 27 25 23 19 13 8 7 7 7 6 6 5 5 5 13 57 94 74 100 86 99 79 24 36 48 54 56 52 49 59 73 82 82 82 86 81 77 73 50 49 64 84 76 29 45 40
33 27 22 16 10 7 6 5 6 6 6 7 7 5 4 7 33 88 97 92 87 97 54 32 34 56 61 53 53 56 65 50 62 83 98 92 90 96 92 89 88 86 94 91 49 51 52
37 27 16 7 4 4 5 5 5 6 7 7 8 7 6 5 29 100 82 100 99 99 59 33 42 60 54 57 52 67 76 50 72 92 91 95 99 90 92 95 96 91 99 93 74 42 66
34 18 11 6 10 10 10 10 10 9 9 10 10 8 8 7 22 88 100 99 98 96 46 42 44 56 66 61 56 75 83 54 64 81 79 86 92 92 75 94 96 97 98 92 84 75 68
20 10 35 95 70 34 23 17 15 14 14 14 13 11 10 38 29 82 100 99 99 93 42 50 55 57 69 74 69 76 82 66 69 76 87 91 76 67 94 97 98 100 99 92 89 61 89
9 13 100 84 100 94 46 28 24 21 19 19 17 14 12 70 87 88 98 99 99 52 49 59 60 59 79 80 76 90 83 72 70 71 80 77 61 79 97 97 98 96 93 86 98 99 96
6 15 89 51 57 94 59 49 49 38 35 29 23 26 22 39 93 45 98 98 99 48 72 65 66 63 80 83 85 96 97 91 90 77 89 87 93 83 88 97 97 98 82 82 73 86 98
13 40 95 86 71 72 82 80 77 62 47 60 52 64 56 66 97 40 98 98 98 60 95 71 68 64 79 90 89 99 100 97 98 96 91 83 99 88 94 98 99 92 76 74 76 76 77
23 81 92 81 82 88 80 82 85 59 71 77 69 96 99 62 91 73 99 98 72 80 93 81 70 67 78 86 89 92 96 98 98 98 98 85 100 98 97 93 88 94 82 82 79 70 92
37 53 76 86 93 85 91 84 81 82 92 96 92 88 98 98 99 80 98 95 84 95 76 82 64 70 71 87 87 92 100 98 99 98 95 84 98 95 95 93 94 84 76 93 90 88 95
58 37 61 89 94 90 86 81 74 68 75 94 71 57 90 98 98 100 98 96 93 77 80 83 66 66 73 82 89 95 97 98 100 92 99 95 90 92 88 86 93 91 88 80 89 90 94
92 95 97 96 97 96 84 79 74 71 93 95 96 68 77 98 98 98 97 94 76 77 78 71 73 60 65 76 83 92 97 100 99 99 97 99 99 88 84 93 88 95 78 71 78 80 79
96 89 94 95 92 84 80 86 74 82 95 97 97 88 85 94 98 98 96 86 79 87 74 66 54 51 57 70 83 88 94 98 98 93 98 98 97 98 99 98 91 92 74 70 72 82 95
94 90 89 93 91 83 81 84 88 89 94 97 100 99 98 98 98 97 96 92 96 97 80 71 57 59 66 74 82 86 98 99 99 88 86 82 86 100 99 93 87 72 64 58 59 60 80
92 87 89 91 91 84 84 88 89 94 97 97 98 96 97 97 98 95 97 94 100 100 94 86 72 70 65 67 79 86 82 100 91 81 84 78 76 89 86 83 76 69 59 50 45 60 53
96 96 96 91 88 89 87 90 89 92 96 97 95 97 97 98 97 95 92 100 100 98 90 88 78 74 52 67 77 77 95 97 78 72 72 79 78 89 85 77 78 69 62 52 50 48 50
95 96 97 95 91 82 73 83 85 79 84 97 94 98 98 96 95 92 99 100 98 99 96 90 79 67 62 72 67 70 85 84 73 70 63 67 68 60 68 68 76 67 62 57 52 46 52
96 96 96 98 100 82 61 52 55 74 73 88 80 91 86 96 96 86 99 94 93 98 96 97 86 73 70 66 66 69 64 70 56 58 63 66 64 65 71 72 75 68 62 61 60 58 54
95 96 99 100 83 50 32 20 37 58 60 72 79 87 94 96 96 96 89 95 91 93 96 96 81 78 70 62 66 58 54 50 49 41 61 64 73 74 75 79 72 69 70 69 66 68 66
93 99 100 84 64 32 21 22 30 48 53 68 86 97 97 72 90 88 88 98 92 88 88 90 89 77 74 62 60 57 53 54 51 48 65 64 70 75 75 69 65 63 70 77 74 69 66
99 91 95 78 30 16 24 33 37 47 84 83 83 86 53 42 64 93 85 98 93 96 87 91 87 82 83 76 67 62 56 59 62 65 76 71 66 65 69 67 74 63 60 59 59 65 68
99 86 72 76 44 42 30 34 51 58 80 78 78 78 39 38 78 93 90 95 92 98 90 88 88 86 84 76 89 88 81 82 86 84 86 78 70 72 73 70 64 64 60 58 57 56 57
84 85 80 70 73 42 42 50 60 56 76 74 68 34 37 61 94 90 87 93 97 95 92 93 93 90 88 77 71 74 76 76 79 79 79 85 78 76 77 76 72 64 63 62 63 60 57
66 74 63 66 71 69 64 66 62 79 76 74 56 28 45 64 93 96 88 94 96 86 88 91 90 92 92 81 66 60 60 63 61 58 63 72 75 83 82 85 70 67 61 62 65 58 57
37 74 66 61 68 80 83 79 79 78 72 70 34 29 36 53 77 98 87 93 95 87 83 86 88 89 90 84 71 61 59 62 63 62 59 63 67 66 82 82 72 58 56 59 62 64 66
11 58 65 70 65 69 82 85 80 80 78 82 58 28 29 46 69 100 100 94 89 82 80 81 79 68 76 74 63 64 58 57 58 62 60 58 54 60 55 55 56 59 60 60 61 61 63

GFSGBSN_700_rhum_084.txt.gz
RH
35 34 33 31 30 27 23 20 17 15 12 10 8 7 5 7 19 44 80 85 74 81 69 81 65 19 19 24 34 41 58 55 52 51 49 47 38 33 32 33 29 27 23 58 65 54 40
40 39 37 35 33 30 25 17 11 10 10 10 9 8 7 5 8 27 58 81 91 100 95 85 87 34 23 32 33 49 58 60 53 46 42 50 45 38 33 27 26 58 24 25 47 48 36
45 44 42 40 37 33 29 20 11 6 6 6 6 7 7 6 5 30 48 74 99 94 91 95 77 23 25 44 48 52 55 46 53 50 53 62 54 46 45 50 44 27 27 26 26 23 86
51 50 48 44 38 25 20 14 9 7 5 6 6 7 7 6 5 25 59 69 100 98 99 96 82 31 31 45 52 50 50 59 54 40 45 58 76 84 89 94 73 90 84 92 17 30 20
58 55 49 41 26 22 53 32 10 9 8 7 7 7 8 8 6 14 97 77 82 100 96 99 79 33 37 47 45 59 60 67 44 40 66 70 92 88 85 92 99 100 74 70 72 78 58
66 48 52 87 84 93 97 93 59 18 15 12 10 10 10 10 7 33 24 58 96 83 99 85 55 45 42 49 54 62 68 68 48 54 90 76 92 91 90 99 95 86 97 90 74 69 88
70 35 51 97 96 96 93 91 90 68 23 18 16 14 13 12 19 63 55 82 99 99 82 100 64 33 48 48 66 67 70 72 55 57 93 85 87 64 69 94 92 95 96 94 96 83 82
65 14 26 95 92 94 88 90 89 88 87 58 27 20 16 34 98 91 78 76 92 68 99 95 40 42 54 58 72 74 72 74 63 66 83 83 61 53 92 89 96 97 97 95 92 80 91
80 14 82 78 90 94 91 83 88 92 77 79 52 36 21 18 76 98 81 99 99 78 89 46 44 62 55 66 77 91 88 72 67 70 78 89 75 82 97 99 97 97 97 92 96 84 98
94 19 45 53 79 93 95 95 95 88 80 74 77 72 32 26 92 99 93 100 100 99 62 59 54 67 61 76 86 99 97 87 84 88 80 82 88 99 100 95 98 97 94 98 90 98 88
89 37 92 91 82 92 96 96 88 88 90 59 68 71 65 53 99 92 100 85 98 98 91 78 82 73 70 89 94 88 93 97 99 99 96 84 86 95 97 99 99 96 92 94 90 92 91
73 81 96 96 94 95 94 96 96 86 80 77 94 86 77 78 71 76 100 92 97 83 79 89 87 64 72 95 94 97 100 100 100 100 95 75 85 98 100 100 96 85 99 98 99 77 93
52 84 93 88 88 89 93 94 84 76 78 89 95 93 82 95 85 97 98 98 96 95 80 92 79 63 80 98 93 98 99 100 99 96 99 84 91 90 96 99 94 97 98 90 89 76 83
74 86 78 89 95 90 84 79 79 73 80 87 96 74 70 86 98 98 96 98 97 94 97 95 64 76 95 88 97 100 100 100 100 99 94 98 91 86 92 92 97 92 89 83 72 83 92
88 83 83 94 96 91 82 81 82 80 89 95 98 95 58 94 100 82 98 96 92 92 79 80 76 90 89 86 95 95 93 92 98 99 98 91 94 85 87 86 92 78 97 77 80 79 64
93 93 96 96 89 81 76 82 78 90 96 97 98 84 73 84 99 100 97 97 91 86 81 69 86 81 88 77 90 88 95 97 98 96 98 99 97 98 98 93 97 93 87 82 73 73 81
93 100 96 93 90 88 88 71 84 96 97 96 87 79 100 86 100 98 96 89 100 96 79 76 71 66 62 81 83 86 97 97 97 99 93 92 95 95 92 92 84 82 79 62 60 66 50
96 100 98 100 65 53 49 54 77 98 94 93 88 98 98 98 97 96 96 95 95 94 93 94 74 62 72 73 75 79 97 96 84 88 84 84 83 98 88 82 76 71 58 61 56 55 56
90 97 100 98 59 40 32 43 60 71 81 88 77 96 98 97 95 97 90 93 97 98 97 92 79 64 66 66 68 79 87 80 71 69 78 71 71 84 81 77 72 69 58 52 48 48 64
92 100 97 49 27 23 24 25 49 67 71 61 64 96 96 95 94 91 84 98 94 98 97 79 64 63 68 62 67 86 84 69 69 65 66 68 65 60 62 76 75 66 61 52 46 62 51
100 96 51 23 18 18 21 27 46 62 72 71 70 74 78 95 90 85 95 98 92 93 95 76 70 73 66 58 64 73 70 65 53 62 66 64 65 63 61 69 72 67 64 57 52 53 59
55 20 15 10 9 18 29 31 49 58 65 67 65 76 83 87 74 89 91 94 92 89 84 76 69 72 62 52 57 54 53 52 43 46 58 61 73 68 72 64 64 62 65 67 65 59 58
49 14 14 17 15 16 21 31 61 53 59 66 76 64 65 72 71 87 93 89 95 92 89 80 77 64 56 56 51 49 45 40 38 35 49 60 66 70 73 67 63 63 67 64 64 64 64
71 32 20 19 26 28 34 35 56 65 65 66 64 38 36 67 73 80 93 89 95 92 85 83 79 72 66 54 56 48 46 47 42 39 53 61 63 60 63 65 65 59 59 60 60 62 62
68 62 40 31 29 31 31 42 58 66 62 65 27 20 28 39 72 78 89 83 89 95 89 82 81 76 69 64 73 64 62 60 63 64 66 67 64 63 74 66 58 60 59 58 58 57 55
38 69 66 62 54 50 47 39 66 63 63 34 16 21 28 41 64 79 81 81 86 97 92 88 88 84 76 72 62 69 72 67 68 68 63 69 68 69 64 67 52 61 61 60 59 68 57
14 46 66 60 69 66 69 62 67 66 68 50 22 19 30 36 59 77 77 85 85 88 89 85 82 84 84 73 60 57 55 57 60 53 55 62 57 80 82 73 68 66 60 54 62 54 52
12 28 53 69 61 65 68 68 64 57 54 48 36 18 23 33 42 66 79 84 84 82 86 86 86 85 82 78 66 60 56 55 53 51 50 50 62 72 68 75 57 54 53 53 55 53 55
20 10 32 56 74 67 67 70 70 65 66 69 59 23 23 32 36 48 70 84 82 80 77 77 77 59 68 66 61 56 55 50 52 64 50 56 48 55 49 55 51 53 54 55 56 58 60

GFSGBSN_700_rhum_087.txt.gz
RH
54 54 53 53 52 49 45 41 30 22 15 13 10 10 10 9 8 6 31 87 69 99 91 86 75 77 76 35 25 24 27 34 42 50 49 51 50 52 66 70 79 82 82 71 61 63 72
61 62 62 60 57 52 47 40 30 21 12 9 7 7 7 8 8 6 8 54 56 85 85 98 78 79 77 31 34 28 35 42 40 40 39 42 45 46 46 61 79 72 74 82 86 81 76
70 70 70 68 60 51 45 42 42 35 20 10 7 6 6 6 7 7 5 36 46 72 74 99 76 88 76 35 31 32 41 37 34 43 49 45 53 50 88 90 86 85 87 85 70 68 73
75 76 68 50 39 94 99 100 99 90 46 16 8 7 6 6 6 6 7 99 76 77 94 99 68 93 69 41 34 42 37 39 39 49 36 41 52 64 77 94 93 90 83 69 54 50 54
64 63 52 22 16 78 87 88 87 89 84 36 16 11 10 8 7 7 11 77 93 56 95 84 84 88 51 38 41 44 45 44 42 40 37 56 66 82 94 100 100 97 85 62 55 55 55
60 65 48 21 39 70 78 88 86 79 81 73 30 17 13 11 10 9 88 35 99 91 100 89 93 68 52 47 44 43 46 51 51 45 50 72 96 86 92 100 83 66 80 76 67 58 55
96 95 79 60 50 74 79 92 90 83 81 78 61 35 19 15 20 68 72 70 95 81 86 80 81 66 55 50 46 50 53 53 50 52 88 89 99 85 96 98 100 98 90 79 73 75 94
98 85 96 73 87 81 89 94 95 94 89 79 64 55 29 17 96 98 97 82 98 92 96 91 98 89 51 56 52 59 64 57 58 92 98 92 95 97 97 92 96 98 100 95 90 86 87
98 96 87 72 78 88 88 93 97 94 80 81 64 58 42 22 48 98 99 78 90 64 99 83 97 70 61 53 61 62 72 72 87 82 90 98 85 97 100 99 98 89 95 94 96 96 82
97 96 76 80 80 75 78 85 82 80 79 87 65 56 50 26 53 99 96 90 98 98 98 76 65 70 65 61 69 75 89 93 100 84 100 100 89 97 99 100 98 95 95 99 98 98 78
96 95 68 77 78 73 79 88 90 85 84 80 74 78 54 33 74 98 97 91 96 98 98 100 77 75 69 84 88 87 84 83 94 95 100 97 100 100 94 97 96 90 99 97 100 100 98
97 85 76 75 72 80 82 82 84 82 81 91 94 91 67 50 40 82 79 73 85 97 96 99 86 82 75 89 86 86 95 96 95 99 98 81 70 85 92 99 98 98 98 81 85 98 94
85 75 76 73 85 87 80 71 69 72 84 93 90 96 65 51 43 90 78 82 97 98 99 95 92 74 98 88 82 91 97 97 96 99 95 95 86 77 93 95 95 99 99 92 97 97 71
73 69 76 90 87 84 77 74 78 81 92 95 93 67 60 59 97 65 87 96 98 97 99 99 80 97 98 83 92 97 98 98 100 99 96 96 89 89 80 100 100 99 100 97 84 79 82
79 74 77 88 93 91 88 93 94 96 96 99 91 70 52 80 92 90 89 97 96 97 99 100 99 98 97 94 94 95 93 93 99 92 99 100 93 78 80 81 98 89 99 98 98 88 85
72 77 98 87 72 54 55 92 98 95 95 88 50 58 64 87 91 96 98 96 97 96 95 90 73 75 81 93 96 99 95 96 91 97 96 86 95 85 87 80 88 95 88 86 79 84 74
56 60 56 36 35 42 61 64 57 59 64 58 47 62 96 81 95 96 97 98 97 98 100 94 83 78 80 94 98 97 92 95 96 95 87 94 98 91 96 90 98 91 76 72 67 60 70
45 25 23 21 29 45 49 56 51 28 37 60 52 73 95 89 99 96 97 96 94 83 68 71 70 84 82 95 98 96 99 98 91 82 98 87 91 87 86 76 74 80 78 66 54 47 49
26 21 20 27 33 40 48 50 52 61 45 38 41 85 96 91 90 96 100 99 97 84 83 90 75 78 72 94 90 100 96 71 68 75 82 69 79 79 73 76 84 80 74 64 60 61 46
23 18 26 35 34 34 49 61 60 56 56 58 54 97 90 91 83 95 98 98 92 86 88 70 62 68 90 87 83 80 70 64 60 60 68 64 74 81 70 91 82 84 76 61 54 60 48
26 19 23 28 32 46 51 52 60 67 68 55 55 73 88 91 68 91 90 87 91 96 81 69 70 80 89 81 83 67 53 49 46 57 60 58 64 63 70 68 68 66 75 68 58 57 51
26 17 24 27 43 58 53 53 58 56 61 66 61 67 69 64 66 90 82 94 81 79 93 92 72 62 73 65 75 59 51 41 32 48 52 56 58 59 64 57 61 62 57 66 63 71 63
32 24 27 46 45 60 68 67 52 54 53 32 34 66 52 54 68 97 75 78 85 87 78 64 68 73 52 43 45 43 39 35 35 34 48 56 55 62 78 61 62 62 59 60 64 58 66
56 37 33 44 50 57 74 76 71 65 43 35 26 39 45 43 93 84 72 74 80 84 78 70 64 77 55 44 41 40 40 41 39 35 41 52 57 58 83 62 66 56 54 57 60 62 61
31 63 47 42 50 51 71 70 68 44 18 17 22 24 36 38 54 62 71 70 74 80 79 71 70 64 58 56 79 77 71 57 52 47 49 54 62 81 78 52 60 52 51 49 49 56 50
11 35 61 68 63 56 69 70 66 65 34 14 26 28 27 37 51 58 64 68 94 77 72 75 75 71 59 55 64 70 57 70 70 76 44 56 61 78 70 65 44 69 55 54 50 64 50
9 10 32 57 64 68 63 72 64 68 42 18 25 36 42 36 37 48 63 70 69 74 82 76 73 72 66 72 70 64 65 44 62 61 60 64 64 73 65 64 66 57 58 48 58 59 45
5 10 10 25 53 64 69 66 68 67 47 41 26 29 36 40 44 45 55 64 69 70 96 75 77 75 73 74 68 72 68 65 51 49 56 58 62 58 66 63 52 47 44 51 52 44 45
6 5 11 10 18 45 65 75 68 59 62 66 38 24 36 48 47 52 62 64 67 67 71 72 75 59 63 64 56 50 69 47 52 49 48 61 45 67 47 61 40 41 40 43 44 44 45

GFSGBSN_700_rhum_090.txt.gz
RH
72 74 74 68 56 47 47 48 50 47 43 33 23 15 10 10 9 9 8 12 29 92 95 88 89 86 79 79 65 44 30 26 30 36 35 30 34 40 44 60 72 75 76 76 73 69 64
65 62 60 55 32 19 14 24 68 76 69 55 32 17 11 8 7 8 8 7 20 52 91 95 97 92 92 83 54 40 31 32 36 33 28 26 29 33 34 42 54 64 75 73 72 79 77
66 66 62 47 41 35 29 21 72 92 96 86 63 21 12 8 6 7 7 6 8 52 73 78 98 83 95 86 66 42 32 41 36 33 30 17 23 24 34 45 78 87 83 79 74 50 49
87 85 84 69 62 49 42 72 87 86 81 88 81 27 14 8 7 6 7 8 14 54 61 67 100 88 87 78 62 39 41 39 36 37 30 18 21 25 29 38 44 75 79 86 56 63 61
98 98 98 91 79 68 67 74 86 87 83 83 74 47 16 12 8 7 8 21 97 87 76 98 98 91 92 73 51 40 46 42 44 43 31 21 23 27 31 55 59 91 86 79 70 60 57
97 97 97 96 86 90 76 70 79 79 88 83 80 64 33 16 11 18 12 33 99 99 88 100 98 100 87 61 44 44 46 51 49 44 31 26 28 30 42 99 91 79 85 94 82 72 63
97 98 96 95 93 82 76 73 82 83 83 86 78 68 53 19 51 91 88 98 86 100 99 98 92 87 72 56 50 44 53 57 57 46 38 40 42 35 55 89 90 94 96 81 70 71 70
57 98 96 86 63 70 71 69 73 74 78 80 73 69 50 25 100 100 97 98 82 98 96 93 95 90 84 54 51 55 61 66 69 75 93 74 51 70 86 90 97 97 98 88 73 75 91
87 98 73 59 66 68 79 77 71 73 74 68 67 66 48 38 44 98 99 75 92 95 99 96 100 100 83 56 68 69 74 78 89 100 100 100 68 91 90 81 91 88 96 88 96 87 92
73 45 41 50 64 76 85 76 69 75 87 62 56 53 45 46 32 73 98 97 98 90 91 99 95 98 73 68 74 75 88 98 100 97 100 97 88 87 83 97 98 98 96 98 99 98 96
68 56 50 62 78 78 74 71 68 68 64 63 73 89 62 54 70 59 95 97 97 100 94 99 94 84 74 71 92 90 96 100 95 100 97 82 94 93 89 87 99 92 100 99 98 95 96
78 69 64 70 81 83 82 76 72 70 74 77 89 94 71 53 41 96 96 100 97 95 97 98 94 85 74 99 95 99 96 97 92 81 82 74 70 73 86 85 98 98 100 100 99 98 97
75 81 86 93 99 93 92 80 81 88 91 95 96 89 57 63 29 95 98 80 86 95 97 98 100 89 91 96 98 99 100 100 92 86 92 86 85 91 99 99 94 98 98 98 97 97 98
87 72 66 71 100 94 96 92 97 100 94 95 95 74 57 72 30 86 72 74 96 97 100 96 82 96 97 98 100 98 93 78 88 90 98 97 96 88 90 90 93 96 98 99 96 96 96
55 38 47 52 89 97 85 86 97 93 78 52 45 43 56 73 31 54 71 92 97 97 91 91 96 93 95 96 96 82 79 88 99 94 98 95 97 94 86 80 76 79 96 97 98 89 98
28 32 38 45 51 31 40 45 74 35 20 33 44 53 54 49 70 67 81 95 97 99 79 87 76 77 88 92 89 96 94 89 84 98 98 87 94 84 78 86 88 98 82 85 82 97 94
26 29 37 46 53 16 16 13 13 17 23 31 41 47 63 73 73 87 96 96 95 94 98 95 72 72 76 90 92 100 91 98 97 99 92 99 98 73 72 80 82 86 74 68 76 61 96
28 28 31 47 55 55 18 24 30 34 37 46 53 58 64 75 87 99 94 90 79 79 88 72 74 77 84 92 84 87 95 95 86 84 95 96 85 87 80 76 78 78 70 58 58 60 52
28 35 37 44 60 58 62 47 35 47 50 48 44 58 65 84 98 98 100 83 96 100 95 76 58 70 85 89 87 93 96 69 71 75 78 77 80 81 78 76 66 77 59 51 56 53 56
15 29 44 50 54 60 62 66 64 56 56 56 55 69 80 91 95 98 93 85 76 68 58 57 66 79 85 82 84 73 82 62 60 65 67 67 76 76 80 80 81 75 63 53 54 55 65
16 20 43 56 55 50 62 59 59 62 68 63 64 65 74 82 87 82 78 93 82 62 56 65 80 87 79 82 72 60 55 61 52 62 61 63 62 62 74 71 72 64 75 58 55 57 62
34 24 42 49 62 60 48 56 59 51 64 66 56 68 56 61 78 79 82 95 69 60 81 84 82 76 74 69 72 71 56 44 33 61 52 54 56 63 68 61 69 62 51 55 56 63 64
43 43 43 41 62 71 67 60 63 54 39 50 62 48 59 57 90 78 66 72 67 68 72 60 60 57 45 46 44 40 36 34 31 31 39 50 54 55 78 54 57 71 53 55 60 56 66
10 44 58 48 48 69 67 61 44 39 30 25 56 36 60 55 79 64 58 63 60 58 46 50 54 51 44 38 38 39 39 38 38 34 35 48 54 54 53 61 80 59 51 52 54 53 55
8 11 40 62 64 60 62 60 46 15 21 23 29 41 42 53 52 52 54 59 58 52 54 51 48 50 46 42 42 64 60 53 49 34 36 42 58 80 63 69 55 60 51 49 50 62 53
5 9 10 35 59 63 65 57 54 28 13 20 24 33 29 52 59 48 50 54 78 57 53 51 54 54 48 45 63 66 59 52 59 45 34 36 49 60 77 70 58 62 51 50 48 56 50
6 5 9 10 30 56 61 69 59 49 34 14 18 38 48 42 46 51 47 56 61 61 68 59 59 55 51 59 72 63 63 43 55 48 43 35 39 58 68 68 58 58 50 49 43 56 50
5 5 4 7 10 27 54 60 67 60 55 56 22 20 26 42 42 48 53 55 59 64 66 62 63 64 62 61 62 73 52 62 42 49 40 37 49 60 59 60 61 40 35 33 46 42 37
5 4 5 4 8 11 28 53 65 69 62 66 66 24 20 25 43 53 57 60 68 70 71 66 71 68 64 62 66 58 54 58 49 50 54 40 34 56 52 55 53 35 34 36 38 34 33

GFSGBSN_700_rhum_093.txt.gz
RH
77 80 85 90 79 62 54 53 96 92 88 81 77 52 40 50 24 17 13 11 10 29 100 88 100 95 79 73 67 62 46 34 28 25 27 27 26 22 22 24 28 35 49 64 74 72 58
84 96 99 98 94 83 67 67 83 98 98 94 90 84 57 29 55 28 9 9 9 12 57 100 85 96 88 84 65 53 43 34 28 30 25 23 23 25 22 19 21 25 27 34 53 54 54
98 97 97 97 97 97 82 69 62 73 93 100 96 93 85 29 17 59 14 8 8 8 58 64 94 96 99 94 59 64 64 34 31 29 25 25 22 21 19 21 22 23 27 28 24 44 68
66 88 98 94 97 96 96 94 86 74 93 97 96 94 80 25 15 33 43 7 7 9 76 77 96 89 100 84 82 76 45 36 38 31 30 21 19 17 18 21 26 36 43 46 33 54 61
55 67 90 98 97 81 74 79 64 67 77 85 87 92 74 42 15 9 36 22 10 24 58 83 85 82 99 78 77 59 43 44 37 37 37 23 19 18 21 25 28 40 52 61 49 59 75
53 50 50 91 78 73 64 70 67 69 80 86 93 93 70 53 45 28 35 49 98 78 96 86 94 98 88 81 61 45 46 41 42 40 38 27 19 22 28 38 45 56 65 58 57 39 63
66 57 43 67 72 70 66 73 71 66 81 89 83 82 64 49 78 99 92 96 100 100 96 98 99 92 79 78 54 48 46 47 45 44 38 26 31 42 48 61 65 81 75 75 50 60 89
72 76 52 50 68 74 84 79 80 78 87 71 69 67 58 46 72 98 88 99 100 98 98 99 91 93 80 60 48 48 54 59 57 62 60 54 47 55 63 71 90 86 95 69 71 85 97
66 76 74 66 66 75 80 84 76 75 84 68 69 62 57 50 62 94 99 98 99 98 98 98 98 99 83 66 51 58 62 68 92 100 100 91 66 73 85 81 83 82 93 90 98 89 96
38 80 82 89 82 69 80 84 74 66 60 62 56 56 40 49 31 74 97 94 99 86 96 98 98 99 94 72 77 86 79 91 100 98 100 90 65 74 73 74 89 93 85 93 99 98 96
24 41 95 76 91 97 94 93 83 73 67 65 73 65 49 42 34 36 89 95 98 63 95 99 99 98 87 85 82 96 88 100 99 99 98 74 65 73 69 80 97 92 96 99 99 94 96
25 33 37 56 97 90 92 96 90 95 96 92 86 80 40 39 36 59 94 84 91 90 98 99 99 79 81 96 96 96 100 90 89 85 89 84 88 76 83 68 84 88 98 98 97 96 99
31 35 38 45 87 87 83 88 92 95 91 90 64 40 26 68 72 63 78 94 82 92 99 97 99 86 98 96 92 98 98 97 90 83 90 90 88 80 78 69 70 94 100 97 97 97 93
33 36 41 17 35 51 68 77 82 85 71 48 32 26 24 31 61 67 93 88 89 97 94 97 89 97 94 87 93 97 99 100 85 88 95 94 81 89 85 89 97 86 99 98 96 97 98
28 36 40 25 9 10 15 26 24 26 33 27 32 24 20 25 38 73 82 82 98 88 83 92 94 96 93 98 97 100 97 99 100 99 95 95 84 86 76 80 85 94 97 96 98 98 96
30 32 53 48 19 12 13 17 21 17 24 31 22 21 26 60 81 74 70 99 97 88 86 88 82 82 85 91 99 99 91 96 92 93 98 99 96 78 69 76 75 86 86 89 86 97 96
34 48 49 57 52 19 24 32 30 31 23 30 57 62 74 77 74 76 77 97 91 94 93 80 77 81 75 86 96 92 92 95 98 100 99 94 98 72 78 75 83 83 76 68 71 72 92
23 46 51 59 56 54 25 32 43 50 41 55 49 59 68 62 65 64 74 83 86 86 79 77 78 83 85 78 82 84 91 90 80 87 94 98 95 86 78 82 79 78 70 63 63 65 63
21 36 53 55 53 47 52 44 44 44 52 48 48 62 63 58 60 61 63 73 86 66 63 68 75 74 77 83 83 88 73 69 74 77 78 78 77 83 74 71 65 75 61 51 53 62 77
34 33 39 60 53 46 35 56 54 57 62 50 49 67 69 71 60 71 81 77 79 75 70 69 82 85 85 82 79 73 60 53 64 68 69 79 81 72 82 82 85 80 65 55 47 61 78
35 43 36 46 64 52 52 34 59 61 66 62 55 68 79 90 88 85 81 80 56 67 69 64 76 80 81 81 68 57 50 51 56 62 66 66 60 62 59 62 67 69 66 59 59 60 63
9 38 52 45 55 66 53 32 31 41 55 63 59 66 74 80 91 83 64 61 45 47 52 61 69 71 72 64 58 54 55 44 33 47 50 55 52 53 66 60 62 63 56 54 66 74 76
5 9 34 55 56 62 58 24 13 24 36 42 51 63 71 70 71 71 50 42 38 40 50 54 46 50 52 55 54 40 34 36 34 32 35 43 46 46 51 53 54 65 51 56 56 70 78
5 6 9 32 59 58 62 52 14 14 19 37 30 36 59 73 64 68 52 45 34 34 45 47 46 40 39 39 40 39 40 37 38 36 33 37 44 47 45 60 78 53 44 51 55 59 61
5 5 6 8 39 61 59 60 42 13 13 17 28 33 31 53 67 62 59 53 41 33 35 37 39 40 37 35 36 38 53 51 49 41 41 45 52 57 64 61 62 58 50 49 49 57 55
9 4 5 6 9 38 60 60 57 40 23 13 18 22 31 36 42 52 60 59 53 45 38 30 31 36 35 34 37 48 51 45 43 37 40 34 49 57 72 74 64 59 52 47 46 42 50
22 5 4 5 6 9 34 59 63 54 52 41 22 19 21 25 48 43 44 56 68 61 48 46 47 40 36 38 46 54 56 51 40 44 38 34 46 51 68 71 55 57 50 54 44 49 44
34 10 4 4 5 6 10 31 58 63 56 64 56 28 18 21 21 30 48 49 58 69 72 64 56 58 54 57 58 64 57 50 48 39 42 40 36 50 60 63 50 42 36 35 38 35 37
45 18 5 4 4 5 6 10 28 54 66 65 68 66 31 18 23 22 32 46 59 62 66 74 73 79 79 71 75 66 62 51 50 43 35 40 31 36 45 34 40 41 32 30 31 30 32

GFSGBSN_700_rhum_096.txt.gz
RH
65 52 50 67 97 97 97 96 94 93 82 89 90 91 93 87 50 58 79 19 12 20 46 93 89 100 88 80 74 52 56 45 32 29 26 24 19 16 16 18 20 19 14 16 16 13 16
51 40 21 22 84 80 99 96 96 97 90 74 94 90 92 93 74 42 43 48 13 10 38 91 83 96 96 96 76 67 52 43 34 29 26 21 18 15 14 15 16 15 15 15 15 15 18
35 43 32 26 20 38 71 76 85 85 76 75 86 92 83 84 74 34 32 48 14 9 37 99 96 99 98 99 81 64 55 55 41 31 26 23 18 15 14 16 16 19 20 21 21 21 24
24 44 44 38 32 48 50 58 65 69 64 68 77 91 85 64 61 23 18 55 17 8 17 92 100 100 100 94 98 84 77 68 39 33 27 26 16 15 15 18 22 24 28 26 25 31 34
31 56 62 49 40 45 54 53 61 66 68 75 82 82 89 65 47 16 14 47 8 8 29 67 86 96 99 90 84 78 72 46 38 32 28 26 18 16 17 23 26 33 38 38 35 40 50
29 58 66 58 53 66 56 60 63 73 72 73 78 85 85 65 33 22 30 42 31 90 99 90 86 96 91 97 86 72 56 42 37 36 35 30 23 20 26 37 48 56 56 52 57 53 70
25 37 64 89 83 74 94 63 61 71 75 65 62 70 75 61 58 75 100 96 99 100 90 94 99 98 97 85 64 49 47 42 37 41 42 34 28 37 50 53 54 62 72 70 50 61 93
32 39 89 100 89 96 93 75 60 61 67 75 59 60 69 55 64 98 91 98 98 98 95 98 100 92 95 77 54 52 45 46 47 48 47 44 37 59 69 61 68 78 79 61 62 69 99
32 38 82 99 93 98 89 88 67 55 48 43 45 51 65 51 29 96 95 97 96 98 96 97 97 91 72 67 58 56 56 65 63 62 67 47 68 79 66 62 77 72 80 89 93 82 89
44 38 44 69 88 95 96 96 86 66 57 60 65 68 41 41 25 96 97 98 98 96 94 98 98 97 86 66 68 77 82 79 88 84 96 81 70 63 59 61 73 70 85 100 100 99 98
48 42 25 12 40 73 87 88 82 83 86 80 74 51 34 32 24 69 90 98 95 93 93 97 99 97 81 79 80 96 82 98 100 100 93 77 61 59 61 71 74 60 73 87 100 100 99
31 48 32 9 11 17 29 68 84 65 78 77 43 33 36 27 41 78 85 95 81 77 98 97 98 90 99 96 95 79 98 95 94 88 84 74 78 67 65 64 71 65 83 100 100 99 100
44 52 43 11 10 12 14 17 35 44 25 22 31 59 58 50 58 57 81 82 70 91 99 97 93 90 92 87 90 100 98 98 97 78 86 80 76 81 74 77 76 88 100 97 93 97 93
49 51 50 17 19 9 9 13 15 16 17 26 50 50 49 66 74 87 89 78 85 97 100 95 88 100 91 97 100 98 97 96 82 96 99 92 70 82 79 89 91 87 99 98 96 97 98
45 54 48 36 25 19 10 7 9 15 21 32 38 35 48 71 77 75 70 69 91 90 83 89 100 98 97 94 97 90 94 97 96 100 93 84 76 74 74 79 87 91 99 100 98 98 97
37 55 43 52 27 34 34 12 10 9 11 13 20 42 63 59 62 65 54 86 82 80 87 84 82 81 96 96 97 92 91 100 90 86 98 93 88 70 72 78 82 85 91 95 94 96 96
34 43 55 40 51 31 43 34 32 31 24 35 51 55 62 65 64 56 61 79 90 86 85 85 79 79 82 96 98 94 89 88 86 99 100 100 97 65 76 82 82 78 80 79 84 81 95
37 37 56 49 33 53 46 37 45 57 58 58 63 65 71 68 56 61 90 97 80 85 84 84 80 80 86 86 83 83 83 85 82 81 96 99 94 83 71 82 78 66 74 72 72 65 74
46 45 43 61 50 29 47 50 51 48 54 64 47 61 62 55 53 62 73 73 69 75 75 80 82 82 80 77 76 76 68 65 71 74 79 83 84 83 57 68 66 59 60 63 58 67 86
10 48 50 53 63 42 24 40 47 53 47 56 57 59 54 56 73 69 66 60 64 64 71 69 75 72 72 79 82 70 60 68 64 70 75 83 82 69 75 71 81 69 59 56 50 61 79
6 12 49 54 56 55 29 20 28 42 49 50 56 52 53 75 70 72 66 63 63 68 64 63 68 66 64 65 62 56 50 55 65 67 66 68 67 61 60 63 70 63 57 62 53 59 65
6 6 15 52 54 52 32 15 16 22 40 49 54 60 58 62 60 60 55 57 60 56 57 56 60 61 61 55 47 32 36 35 32 41 51 60 63 55 47 59 60 60 54 63 66 64 62
7 5 6 21 52 53 49 24 12 14 20 35 41 50 54 41 53 59 51 44 48 50 50 51 53 52 50 47 34 28 31 33 34 38 40 48 49 50 46 49 56 64 49 51 52 69 73
30 5 5 7 24 50 53 49 29 14 13 17 31 40 42 46 45 41 45 44 43 46 50 49 47 44 42 40 36 34 34 34 34 35 36 40 44 47 46 49 71 60 50 48 55 56 55
52 12 4 4 7 17 46 53 50 44 15 15 14 20 29 34 38 43 44 33 29 34 45 48 45 45 40 37 34 33 37 40 39 41 38 37 46 52 61 66 46 51 52 47 44 41 46
52 37 6 4 4 6 14 42 54 52 53 24 16 15 17 22 29 35 34 36 36 30 29 31 35 40 40 38 38 40 36 49 34 36 41 48 49 56 69 77 66 52 50 44 47 41 32
58 47 17 5 4 4 7 11 38 57 56 58 48 21 17 21 22 26 32 38 35 35 37 39 37 36 35 37 44 50 47 50 40 36 36 40 42 51 53 70 44 43 57 46 51 36 46
80 49 35 8 4 4 5 7 10 34 61 61 61 64 48 18 20 24 25 30 32 34 38 46 48 47 48 48 53 57 64 53 53 44 37 42 37 41 59 65 53 34 34 34 29 31 31
90 54 47 16 5 4 4 7 7 9 30 60 65 65 70 65 26 21 23 32 39 38 46 44 46 51 59 60 71 71 68 63 55 56 43 43 36 33 41 34 34 42 41 37 33 32 33

GFSGBSN_700_rhum_099.txt.gz
RH
20 22 30 31 33 30 64 53 80 89 81 88 90 92 90 87 97 91 80 97 40 16 52 92 99 99 93 98 85 56 45 49 44 27 26 26 22 17 14 11 13 11 9 10 11 11 11
21 32 42 43 44 43 49 69 67 65 75 92 76 92 94 92 95 87 76 73 92 20 26 74 98 98 99 97 91 78 60 49 39 30 30 25 19 16 12 10 10 9 10 12 11 14 16
28 36 42 50 89 54 66 83 62 57 52 56 60 75 94 90 85 70 61 43 84 64 15 97 97 97 99 99 95 82 66 52 42 36 31 25 19 16 11 11 11 13 13 14 14 17 19
34 38 53 74 77 70 69 59 53 56 56 56 59 70 88 82 73 59 38 26 50 49 39 68 73 81 88 99 98 88 70 61 60 47 33 24 21 14 12 12 14 16 18 18 23 29 33
35 44 81 94 88 94 84 78 64 58 61 61 68 67 80 78 74 46 15 24 40 36 34 97 94 97 100 98 91 94 82 70 54 39 31 25 24 15 13 15 17 22 28 33 35 39 48
49 40 81 95 98 96 86 89 80 66 63 62 55 74 84 81 60 35 35 43 12 27 90 98 97 99 95 95 98 85 79 63 46 37 30 28 25 16 16 16 32 42 47 50 51 56 68
46 35 55 91 93 98 96 92 83 55 61 57 53 61 73 61 28 98 55 62 59 91 88 92 80 87 86 99 97 83 68 49 42 33 31 30 28 24 22 34 45 50 61 67 66 74 85
51 28 14 88 86 95 93 96 84 51 42 45 55 57 60 46 38 98 97 97 76 96 90 89 82 98 99 96 86 58 47 45 39 39 37 36 35 33 38 46 52 67 75 65 73 83 97
52 17 11 18 33 63 86 76 86 74 56 58 60 44 49 43 41 97 98 89 98 90 92 98 98 97 94 66 57 51 47 43 45 46 45 42 48 48 48 48 56 65 76 86 99 93 91
48 18 10 9 11 38 67 70 86 94 76 64 45 37 38 36 86 89 98 97 95 95 90 98 99 94 78 62 63 58 51 60 59 68 56 49 55 52 50 52 77 82 77 85 100 100 99
39 20 8 7 11 14 26 36 52 56 62 36 33 52 39 68 96 91 97 97 88 90 90 97 95 85 80 84 71 61 65 68 98 100 72 72 54 58 59 68 76 71 87 100 99 100 99
34 29 16 7 9 10 10 14 19 23 28 32 32 46 60 66 82 90 96 92 85 61 96 98 94 90 86 88 81 71 88 82 82 70 73 67 69 64 65 81 89 89 89 99 89 97 96
36 34 22 25 8 13 16 22 44 53 50 44 45 48 53 62 68 82 79 71 71 90 98 100 97 96 84 84 86 99 97 97 95 79 72 66 67 73 81 90 90 96 97 94 83 89 88
45 24 27 36 12 10 17 28 28 36 43 60 78 79 71 65 65 71 75 73 82 99 100 93 95 85 92 99 97 91 96 98 90 95 99 92 66 82 84 90 90 87 100 98 97 100 95
60 32 40 32 41 21 16 11 24 20 26 50 63 70 70 60 63 69 66 60 91 96 75 80 98 90 92 89 87 87 93 98 98 98 99 100 75 78 79 84 82 81 88 99 99 97 98
46 58 22 48 39 41 40 35 31 27 33 42 54 50 56 56 57 58 43 71 78 66 73 80 83 88 93 91 94 90 91 96 98 97 99 99 90 70 79 75 72 76 84 91 94 96 94
52 56 56 21 51 47 41 45 47 54 56 56 55 54 56 60 53 47 54 88 91 89 86 83 79 80 86 93 98 95 91 92 99 100 99 99 98 57 69 73 82 72 83 89 97 89 97
40 54 58 47 19 40 44 49 47 44 52 54 52 61 58 46 35 48 76 85 89 90 88 86 81 82 87 86 91 90 87 85 83 88 98 97 89 70 52 70 75 69 74 85 95 72 79
7 48 54 52 25 17 21 33 44 40 45 49 54 62 56 45 42 54 68 73 75 76 76 77 80 75 83 85 82 81 73 70 69 73 72 73 73 68 45 55 57 54 61 78 71 79 85
5 10 47 53 43 17 14 18 32 38 44 43 45 53 49 38 45 49 54 60 69 72 74 76 76 76 79 80 73 59 57 70 68 68 71 78 80 67 63 57 64 52 49 64 62 66 76
18 5 12 46 52 34 14 13 18 28 33 31 31 36 42 52 49 55 63 69 69 71 71 72 74 70 66 60 54 46 51 55 60 62 66 68 61 55 48 57 61 56 56 58 60 60 68
50 8 5 12 43 50 36 13 13 16 25 34 32 37 42 45 49 50 52 59 61 58 60 60 67 68 60 57 58 38 39 35 34 39 44 54 61 55 29 39 55 53 54 58 64 59 61
76 39 6 5 8 39 49 45 16 13 15 24 24 25 33 36 38 40 42 43 46 50 52 57 59 60 58 54 46 35 32 34 37 39 42 51 56 57 42 54 50 57 36 49 51 53 52
74 63 30 4 4 6 32 50 50 25 12 14 21 23 26 27 31 38 35 34 35 43 46 47 46 46 43 42 40 36 34 34 34 39 45 46 58 65 54 46 63 50 43 47 43 46 48
64 76 56 21 4 4 5 24 47 51 44 13 16 18 18 20 24 27 30 33 30 31 34 40 39 38 39 36 35 30 28 31 38 45 55 55 54 62 59 71 32 25 34 48 46 36 43
55 70 67 52 13 4 4 6 17 45 54 54 23 15 17 18 18 19 24 26 33 34 29 30 32 32 33 35 34 36 29 32 32 35 38 45 52 59 66 72 62 37 46 42 41 30 30
51 58 74 54 41 8 4 4 6 12 40 57 57 55 29 16 16 19 20 21 21 25 29 31 32 28 28 30 31 35 37 39 39 38 38 44 46 48 60 73 32 28 41 52 38 28 38
59 56 71 68 51 26 6 4 5 6 11 34 54 59 62 62 49 23 17 22 22 24 22 28 33 34 41 43 44 44 53 48 46 39 38 40 40 40 60 68 53 31 40 35 27 26 26
66 64 62 82 52 47 16 5 5 5 5 10 29 52 60 62 64 63 30 19 19 23 38 39 47 49 55 56 67 70 62 64 56 60 45 43 32 33 34 28 29 30 35 38 35 36 34

GFSGBSN_700_rhum_102.txt.gz
RH
50 42 41 65 57 57 39 56 53 50 54 62 79 90 98 97 97 94 90 75 91 41 63 96 96 100 99 99 96 73 61 43 38 33 28 23 23 23 20 16 14 12 10 9 9 9 8
47 45 43 68 69 65 53 58 61 48 47 49 57 76 94 97 96 96 91 77 86 56 28 94 99 98 97 99 97 66 52 50 48 38 27 27 26 22 18 14 12 11 9 9 10 9 10
43 26 88 95 97 96 93 73 65 64 61 57 53 55 65 94 96 91 73 65 69 59 29 93 100 92 100 98 96 90 79 58 44 33 30 30 27 21 17 13 10 10 10 11 11 12 16
42 19 100 92 96 99 93 78 74 69 67 62 64 67 64 78 88 73 64 48 48 68 39 100 96 97 96 99 91 88 79 62 47 43 39 35 26 20 16 12 10 11 11 11 14 19 28
13 50 97 88 98 93 96 96 82 60 62 66 58 66 72 88 78 58 44 22 49 74 56 94 95 98 99 97 98 89 82 72 54 47 45 34 25 22 15 11 11 11 16 20 24 40 44
9 31 80 60 71 78 87 97 76 50 54 53 60 70 93 89 70 38 21 45 87 70 84 98 97 99 98 99 93 89 83 71 56 49 38 30 26 24 15 13 13 18 27 30 38 59 60
7 8 10 21 52 59 76 86 50 46 58 49 57 60 67 56 70 54 72 64 70 97 95 94 86 96 94 93 90 88 76 68 57 44 34 32 30 25 20 19 25 33 38 46 47 66 62
7 8 12 12 23 38 63 73 66 55 62 50 46 52 47 36 40 94 73 46 96 97 97 98 98 97 100 99 84 85 72 54 42 37 33 33 34 33 33 35 35 41 46 42 51 68 89
12 7 16 11 11 22 45 72 77 64 42 38 43 36 43 35 93 95 99 52 95 98 97 98 97 98 98 93 85 67 50 44 41 40 38 40 41 39 40 41 38 41 56 61 77 93 95
26 7 13 17 18 17 18 23 30 38 33 38 69 82 52 57 79 87 88 98 94 94 89 97 98 96 71 61 57 51 44 50 49 50 43 44 46 41 37 42 52 54 66 77 99 99 96
28 12 9 22 28 32 27 28 27 45 72 65 62 84 68 75 72 98 94 93 93 83 88 96 99 93 71 75 61 54 48 54 78 52 53 48 44 42 47 59 69 74 85 100 100 99 100
33 24 27 15 20 32 39 45 48 50 57 60 67 74 83 92 93 93 80 94 71 59 97 98 95 90 82 77 68 61 85 63 59 60 55 57 53 52 61 81 77 90 96 99 99 99 98
20 38 24 30 20 12 21 22 49 78 72 66 64 69 78 75 81 93 92 89 64 91 95 95 90 92 89 85 89 100 86 81 77 60 56 54 63 65 77 83 86 98 99 96 87 94 84
34 33 37 25 33 39 29 20 35 53 65 68 80 80 84 71 58 53 61 51 80 99 100 94 93 93 97 90 86 87 89 95 86 69 79 72 63 74 78 89 98 100 98 97 98 98 92
58 14 46 41 34 35 40 46 49 48 47 50 62 67 63 65 70 63 53 53 98 98 92 84 73 79 90 94 86 82 83 88 100 99 90 96 70 72 80 90 93 92 97 98 100 98 99
54 51 14 41 41 40 40 39 44 47 53 51 55 59 58 58 59 53 46 62 72 64 71 82 85 81 81 84 82 76 78 80 98 92 86 93 87 69 77 79 84 80 82 91 92 99 94
13 54 38 15 31 32 33 33 35 45 51 52 50 49 57 50 50 43 45 90 93 87 83 80 77 76 80 86 78 85 82 79 81 98 97 98 99 62 68 72 74 77 78 82 98 96 98
4 22 51 28 14 24 22 21 25 34 40 46 40 46 53 48 31 36 59 74 85 85 77 77 78 82 80 76 77 77 79 82 86 93 99 100 100 85 48 59 64 72 70 75 91 78 84
9 4 26 49 21 14 21 16 18 21 26 31 29 37 35 32 38 54 70 74 78 76 74 78 80 79 75 75 71 70 70 74 75 82 84 87 83 72 38 52 53 56 61 70 78 88 85
51 8 4 24 46 24 12 17 13 14 17 21 25 29 32 35 44 54 61 64 66 74 71 71 71 71 73 76 78 74 61 69 74 79 82 82 74 72 58 52 57 53 53 67 77 78 74
67 45 7 4 19 45 32 10 17 15 14 19 22 30 36 40 43 48 52 62 64 66 68 69 73 76 77 72 67 57 53 58 60 67 70 79 60 58 43 37 46 43 43 53 66 73 71
59 68 39 7 4 15 44 42 11 14 17 16 18 24 28 35 40 44 49 55 54 53 58 60 68 70 70 64 61 52 41 44 40 41 47 56 60 55 26 25 34 38 39 44 56 62 62
49 61 69 38 6 4 8 37 47 21 11 17 16 18 22 25 29 33 35 36 41 47 53 55 57 59 58 54 52 45 39 37 39 42 48 56 57 62 49 37 45 42 30 25 36 50 57
49 57 62 70 36 7 4 5 28 49 34 11 17 23 22 20 21 25 26 26 27 30 36 43 46 46 45 45 41 38 34 34 35 40 53 57 67 66 64 48 64 29 41 30 36 43 46
50 52 62 63 71 33 6 4 4 21 50 47 13 14 17 18 20 21 22 22 22 21 22 25 29 32 32 33 34 33 28 30 40 45 53 70 75 59 61 70 31 26 36 40 44 29 35
55 52 52 64 68 67 27 5 4 5 14 47 54 35 13 15 15 19 21 23 23 24 23 20 22 22 23 23 21 28 26 24 25 29 34 44 70 78 70 70 52 27 34 48 48 28 28
53 53 53 55 69 78 59 19 5 4 5 11 37 56 56 52 26 17 17 23 25 27 28 27 26 24 26 28 30 28 28 31 28 27 29 34 46 59 72 84 38 24 31 40 49 26 28
58 53 55 54 65 77 82 52 15 5 4 6 10 20 44 54 60 61 52 27 20 20 26 34 38 29 33 35 39 37 44 43 46 37 37 39 41 40 51 74 58 26 28 29 26 25 27
65 59 56 59 60 80 96 62 45 12 5 5 6 10 17 26 49 59 59 65 46 23 23 22 36 45 49 49 54 59 54 60 55 62 51 51 43 39 36 26 26 30 32 35 38 36 34

GFSGBSN_700_rhum_105.txt.gz
RH
20 10 67 90 98 95 92 64 52 55 43 51 44 69 64 84 95 96 91 80 94 96 84 80 99 99 99 99 90 81 61 51 43 35 30 26 22 20 20 19 17 15 14 12 10 9 8
7 49 89 83 95 93 97 91 68 54 43 50 54 59 49 84 89 97 94 79 69 91 87 71 99 98 99 99 95 81 66 48 41 36 32 27 24 22 21 20 17 14 12 10 9 9 9
16 81 63 59 70 77 98 94 76 57 52 54 57 64 58 82 95 97 95 73 71 96 96 88 99 96 99 96 84 58 54 56 47 40 32 25 24 24 21 19 15 13 11 10 9 9 11
12 10 12 16 32 50 91 93 76 52 63 64 57 65 62 58 93 78 80 63 60 95 89 78 99 90 99 98 92 82 76 62 48 37 29 27 28 27 23 18 14 11 10 10 10 10 16
14 13 10 13 29 53 86 80 58 60 57 65 60 78 72 86 80 66 58 41 86 95 66 83 99 98 99 94 98 89 74 61 47 34 30 33 34 26 21 17 12 10 10 10 11 18 28
16 21 15 12 18 55 64 65 64 62 65 68 63 78 86 80 70 55 36 48 94 88 94 92 97 99 97 98 95 87 76 64 56 46 38 36 30 25 22 15 11 12 14 15 16 34 34
19 20 27 23 15 22 39 57 54 47 45 52 60 68 52 52 49 80 91 94 97 93 91 97 91 83 96 95 86 85 73 65 57 48 41 33 29 24 20 16 16 18 24 25 30 47 44
14 21 27 31 25 21 23 26 33 39 41 44 41 48 29 64 76 89 93 91 96 96 98 99 84 98 98 100 87 88 74 57 52 40 33 30 26 26 25 24 24 29 30 40 40 55 71
14 11 26 38 44 38 40 39 40 49 60 76 72 58 65 65 79 69 97 96 96 95 94 98 98 98 100 97 85 77 68 49 38 34 30 28 30 27 30 32 30 34 48 61 73 88 84
27 17 16 33 47 47 46 50 62 73 88 84 73 55 52 64 91 80 96 97 95 89 90 97 98 96 92 85 79 64 50 42 34 34 31 31 31 32 32 35 43 50 61 81 97 99 96
35 30 22 22 40 51 56 63 56 63 70 80 79 69 67 62 79 93 88 95 91 71 86 97 97 82 70 66 54 47 38 33 36 34 34 37 41 38 46 57 66 81 81 96 100 100 99
35 37 39 37 29 32 40 44 49 64 74 76 74 75 73 77 85 81 83 73 61 59 97 96 92 82 68 60 58 43 49 41 38 41 42 48 49 51 66 79 78 87 98 95 99 100 97
16 35 40 39 38 42 43 40 35 48 60 69 77 80 78 81 77 77 88 72 65 93 98 96 89 81 63 63 54 53 51 46 51 50 51 52 61 71 78 81 87 98 89 92 85 92 82
29 17 35 44 41 38 39 41 42 39 46 53 58 63 70 77 78 78 79 64 80 99 100 87 80 80 78 68 62 66 70 72 66 65 52 56 70 71 79 82 88 99 96 96 95 97 90
53 18 19 34 42 36 38 39 38 39 43 52 58 61 60 52 58 56 54 48 92 89 80 83 86 84 83 69 73 81 88 86 88 82 72 65 67 70 76 80 80 81 98 99 97 93 98
17 52 14 22 26 30 30 34 34 33 38 43 43 46 54 54 45 44 39 71 82 75 73 77 77 68 70 75 80 78 83 83 85 78 78 76 63 64 73 79 82 83 89 92 84 92 96
5 15 48 12 21 18 22 26 31 31 32 32 28 32 48 48 40 34 34 76 82 76 74 76 73 73 77 81 80 79 73 76 75 74 73 95 91 63 66 71 78 77 76 78 93 98 96
48 4 11 46 12 19 17 18 22 22 24 25 24 25 38 34 34 42 66 78 80 81 79 82 83 84 82 78 73 70 70 73 75 83 99 98 98 88 57 66 64 78 79 72 83 80 89
60 46 4 7 42 16 14 13 17 20 23 24 23 27 33 34 36 43 58 64 72 73 74 75 81 79 76 71 63 60 62 72 75 79 87 89 91 87 40 62 62 65 60 65 75 88 90
45 60 48 5 4 32 30 12 14 16 19 21 24 30 34 35 39 41 47 54 56 60 61 62 63 64 66 68 68 65 58 63 70 74 77 79 71 68 62 43 50 52 57 67 72 85 77
54 49 61 45 6 4 15 38 10 13 16 20 23 27 30 34 35 36 35 40 44 46 48 50 53 58 61 59 53 51 46 47 44 53 56 70 59 51 41 37 46 40 38 51 63 61 76
51 54 52 61 46 8 3 6 31 22 11 14 20 24 28 29 30 33 34 35 35 36 38 37 40 42 45 46 44 44 38 40 39 42 48 58 61 62 47 32 29 29 32 38 48 55 58
41 47 56 54 62 46 10 4 4 19 32 12 13 17 21 22 27 30 32 30 31 32 34 37 39 40 37 37 36 34 31 30 32 34 41 57 64 73 66 44 40 35 33 26 26 37 34
26 45 49 58 57 63 46 12 4 3 8 40 19 12 16 19 21 25 27 27 28 31 32 34 36 38 36 36 33 32 30 28 30 33 42 49 66 86 73 43 41 19 28 33 34 31 41
22 45 49 53 62 60 66 45 11 4 4 6 30 44 16 12 14 18 22 24 27 29 29 31 32 34 38 36 32 27 24 26 27 32 38 58 78 83 66 70 34 28 26 32 37 28 34
26 49 54 52 57 69 63 71 41 9 5 4 6 13 46 49 19 13 15 17 19 23 27 29 33 32 33 34 34 33 22 21 24 29 32 40 75 95 82 70 53 25 26 26 31 34 26
40 56 59 56 54 66 73 78 66 36 7 5 5 6 8 24 50 52 35 22 16 18 20 23 29 30 34 39 45 42 32 30 30 31 32 41 62 73 85 95 44 28 33 36 34 27 30
54 64 69 61 56 64 79 84 90 62 32 7 6 6 6 5 12 32 51 56 53 44 26 22 28 26 38 46 49 45 44 43 43 38 37 41 43 46 63 89 60 27 32 40 42 44 45
70 69 72 67 62 65 78 96 93 90 61 28 8 6 6 6 7 9 15 41 52 57 62 43 25 31 41 49 57 60 61 62 57 69 53 51 41 44 44 31 29 31 34 38 40 40 35

GFSGBSN_700_rhum_108.txt.gz
RH
10 11 12 14 27 59 96 97 91 51 51 44 37 37 59 57 78 96 96 84 66 68 80 75 96 99 100 99 83 72 58 48 41 35 28 26 23 20 18 16 16 16 14 14 12 11 10
13 13 14 12 19 61 90 96 90 65 72 80 44 43 48 54 71 85 91 86 62 62 88 98 90 98 99 99 88 75 60 50 40 35 31 27 23 21 19 19 18 16 14 12 10 9 9
25 16 18 16 28 49 80 89 85 64 76 52 46 46 49 74 93 95 95 73 58 83 95 96 88 98 98 93 81 67 51 46 42 37 32 27 24 22 21 20 18 17 14 12 10 9 10
29 23 20 20 29 48 52 49 47 43 39 38 46 52 57 94 97 96 81 65 62 81 93 96 93 98 98 97 65 62 58 55 47 39 32 27 24 24 23 20 17 15 13 12 10 9 11
32 30 23 27 31 32 30 29 35 41 43 49 67 66 71 78 74 85 70 50 73 87 97 94 94 99 97 98 94 83 64 54 44 37 32 28 26 26 23 21 18 14 19 9 9 10 12
33 34 30 38 35 47 36 30 33 36 42 52 65 72 73 68 68 55 55 55 93 95 98 94 98 99 99 98 100 88 74 58 46 37 30 30 29 25 23 21 25 13 13 12 12 18 16
37 36 36 40 52 58 60 64 41 37 42 40 48 46 48 57 95 59 63 98 97 98 92 94 98 87 97 98 98 88 75 62 52 42 33 29 27 25 23 18 14 16 17 17 16 23 20
20 40 44 46 51 52 71 78 86 63 55 72 38 54 56 96 93 96 98 89 97 96 98 98 94 94 97 93 83 72 59 53 50 42 36 28 26 23 20 19 18 20 21 30 28 35 39
32 26 38 46 48 60 67 78 84 88 74 62 62 55 76 87 88 92 93 90 97 93 95 100 99 97 93 89 76 66 58 48 39 34 30 26 26 22 23 22 23 26 34 41 58 55 58
36 43 47 48 46 48 59 70 74 84 83 60 59 64 78 91 92 91 97 88 89 83 89 99 95 91 89 82 76 67 54 42 35 31 27 26 25 25 27 28 33 40 50 69 84 89 91
38 37 43 47 52 49 52 61 64 68 65 61 65 69 83 81 96 96 92 88 71 57 83 93 81 85 83 69 66 53 41 35 30 27 28 33 30 34 38 42 50 66 76 83 90 95 96
27 38 36 44 48 48 44 50 60 55 56 62 70 74 70 78 59 68 62 55 56 56 93 92 79 72 62 55 51 40 40 35 34 34 34 35 37 40 50 62 73 77 74 87 98 98 95
13 30 32 33 43 44 44 43 46 49 51 48 55 60 66 75 63 55 56 58 64 93 96 93 86 79 65 59 55 52 46 40 43 46 44 45 46 58 72 76 82 84 93 86 88 94 69
46 15 28 27 31 36 35 39 41 43 52 49 45 52 58 64 68 67 61 62 84 99 100 84 86 81 72 61 59 58 58 59 53 47 43 55 60 67 77 79 83 82 90 88 92 76 68
14 41 17 23 26 26 29 31 31 34 40 42 44 37 44 50 52 53 57 60 94 86 74 74 75 70 62 62 62 69 68 70 68 56 66 63 68 70 75 77 77 82 100 95 94 89 90
8 13 39 15 20 22 23 25 27 25 26 32 36 37 38 38 38 43 38 67 75 68 69 69 72 57 65 60 63 65 71 71 72 66 70 75 72 65 66 74 78 80 81 95 96 84 76
60 9 10 41 14 18 18 21 22 22 23 25 23 25 34 35 36 26 24 57 64 67 61 64 59 62 61 67 72 79 77 78 78 78 69 66 70 65 64 65 86 86 96 80 86 89 72
48 57 13 5 39 14 14 16 20 24 25 25 23 26 30 29 24 26 37 44 50 52 55 60 61 62 67 69 72 72 71 66 65 66 70 60 64 64 54 67 73 72 77 84 65 69 81
46 45 55 19 4 28 20 14 15 19 21 25 23 28 30 30 32 34 44 49 51 51 48 49 56 58 58 58 59 54 53 53 54 56 55 48 59 68 44 55 59 61 55 63 71 75 83
38 46 44 54 23 5 11 30 12 14 19 20 23 29 33 34 34 36 36 40 42 48 48 45 47 49 49 50 47 45 42 41 37 35 37 40 39 42 47 40 40 56 64 68 74 84 60
22 40 46 46 52 30 6 4 32 13 12 16 20 24 25 32 32 34 34 36 37 38 40 40 40 41 40 36 34 32 27 24 26 30 35 52 45 38 33 31 42 48 47 62 94 46 72
9 15 42 48 48 50 38 8 4 18 21 11 15 20 24 28 29 32 33 34 36 37 40 41 45 44 42 42 45 44 37 35 39 36 45 54 64 57 46 32 37 36 38 40 43 44 65
9 16 23 44 49 50 47 44 12 4 12 34 13 14 17 20 24 27 28 27 29 30 32 34 38 38 37 38 37 38 38 38 41 47 55 68 70 74 77 49 50 41 30 28 29 30 34
9 15 25 38 46 49 52 49 47 14 4 5 29 32 14 13 16 19 22 24 25 26 28 29 29 30 31 34 33 31 27 25 28 35 46 56 70 84 96 59 44 18 22 27 30 33 36
12 21 31 37 46 49 53 58 55 49 13 5 5 11 40 43 26 14 14 17 20 22 24 24 24 25 25 25 26 23 21 21 21 25 32 48 74 99 96 81 40 28 29 31 34 27 34
20 26 46 48 46 49 56 61 62 63 48 13 6 5 6 13 31 45 42 22 14 14 16 18 21 23 25 27 29 33 32 23 23 22 26 36 61 95 100 85 43 28 28 32 32 38 30
30 44 51 62 57 50 54 65 68 68 69 48 15 7 6 6 10 18 43 49 50 47 38 26 19 18 25 31 39 42 38 32 30 29 31 37 53 68 100 99 67 31 36 32 40 33 43
57 60 61 64 63 55 58 66 76 78 78 74 53 25 9 8 7 9 10 26 46 54 55 56 53 36 24 34 38 37 42 37 39 34 37 41 45 52 86 100 80 26 30 34 38 41 50
42 58 69 68 66 64 64 72 79 95 90 87 81 63 44 17 10 10 10 12 15 20 36 49 61 60 39 34 40 42 44 52 49 64 44 50 38 42 42 34 30 33 38 45 50 52 57

GFSGBSN_700_rhum_111.txt.gz
RH
25 30 31 9 10 36 72 89 72 48 37 33 34 34 43 56 54 71 90 96 77 64 72 77 97 99 99 99 76 73 68 58 48 36 27 23 22 20 18 16 15 15 13 12 12 11 10
32 39 36 13 17 60 50 66 57 52 44 41 41 46 44 38 37 45 75 91 76 66 70 85 92 100 98 99 81 72 63 55 46 35 26 24 22 20 17 16 15 14 14 13 12 11 11
34 46 47 35 23 28 36 45 50 42 40 37 39 44 40 38 34 38 57 86 71 60 74 91 89 88 98 98 87 71 58 49 41 34 28 26 23 20 17 16 16 16 15 14 12 11 10
32 37 49 55 48 30 30 33 56 58 43 40 46 38 47 68 74 78 80 69 70 84 87 99 92 88 96 98 78 55 50 41 37 34 30 27 23 21 19 16 16 15 14 28 22 11 10
43 42 44 58 65 62 36 31 38 44 46 63 59 46 84 96 87 83 62 74 80 99 98 98 89 95 98 96 64 54 47 44 40 36 31 27 24 22 21 20 20 17 23 25 30 15 11
44 46 52 60 67 77 76 39 28 37 54 60 48 56 63 62 78 60 60 93 98 98 99 98 92 97 98 92 68 59 51 46 40 34 30 28 28 23 23 21 55 29 23 28 26 42 13
40 47 48 64 70 72 81 87 58 50 34 42 50 54 86 78 53 48 94 99 98 99 100 95 97 94 98 96 80 68 58 48 42 37 32 30 24 23 22 21 19 16 14 17 38 29 13
41 49 54 57 68 73 79 92 91 63 59 61 56 84 96 93 60 72 97 91 95 86 96 98 98 98 98 98 89 78 66 52 47 41 36 29 27 24 22 18 16 16 16 48 28 31 35
40 44 54 53 59 64 71 77 64 61 63 70 88 88 93 99 96 96 98 91 96 90 97 98 98 98 93 82 71 62 53 51 43 39 33 59 26 22 19 18 19 20 27 42 51 41 54
37 45 47 52 50 55 63 66 64 60 74 78 76 76 74 84 97 96 97 98 93 84 86 97 97 94 85 71 65 58 48 39 36 33 29 26 24 21 22 24 28 63 39 55 67 78 80
26 35 44 45 49 49 49 58 66 58 62 68 79 73 80 84 92 92 91 86 75 73 86 87 87 88 88 71 61 52 43 36 32 30 28 33 28 31 34 36 43 66 63 66 61 87 92
20 24 38 37 39 39 45 49 54 62 63 72 74 73 70 62 65 70 59 58 61 82 93 90 82 76 68 60 48 40 38 36 34 30 29 32 33 33 36 54 64 70 66 70 99 99 91
19 19 24 35 32 31 35 39 42 49 55 65 64 61 61 59 53 52 52 54 67 95 91 97 94 74 60 50 51 52 48 33 36 42 38 39 40 53 68 77 77 76 84 81 82 88 72
27 19 18 23 29 28 26 28 37 38 38 48 55 59 58 55 52 48 49 68 87 99 98 65 64 57 49 42 42 36 40 77 42 62 61 90 82 68 72 71 69 92 89 84 84 69 63
8 21 21 15 21 24 24 25 27 30 34 36 35 40 43 50 46 43 53 49 98 81 50 50 43 78 45 46 57 73 81 88 57 44 86 85 78 63 68 69 71 97 91 84 92 78 82
63 14 14 24 13 19 24 24 25 27 27 28 29 34 36 34 39 37 29 38 46 41 38 38 66 62 73 58 81 82 80 60 57 51 51 54 78 59 58 64 64 74 66 87 99 74 68
53 62 22 7 29 12 16 22 25 25 26 25 24 25 31 33 26 23 24 41 41 38 34 58 48 65 70 77 81 77 64 55 50 47 44 44 60 76 56 56 82 64 89 72 77 66 62
40 46 56 32 5 25 14 14 21 25 27 25 23 27 25 26 26 22 33 41 41 46 46 56 51 54 73 51 69 72 76 46 40 37 62 37 61 76 70 59 50 65 82 74 59 48 62
26 41 44 48 44 8 11 21 11 20 24 27 24 27 27 27 27 29 36 41 40 42 42 43 46 41 40 41 62 41 41 41 39 39 78 46 81 71 62 47 45 52 49 64 74 72 64
10 25 42 43 44 47 23 5 22 12 16 20 22 26 28 27 26 30 32 34 35 37 37 37 39 37 36 37 37 43 40 37 32 30 33 39 54 58 52 40 56 62 65 79 76 74 60
8 11 25 43 42 42 46 39 6 13 13 15 19 22 23 25 27 26 26 30 31 32 35 38 38 39 40 63 36 35 31 27 26 28 30 39 55 64 37 30 32 38 71 72 70 77 80
9 10 15 26 42 39 41 47 46 9 8 20 12 21 24 25 26 28 26 27 29 30 31 32 34 36 37 40 36 38 29 31 38 28 34 38 50 66 40 27 57 48 52 66 71 70 72
10 10 14 22 30 38 37 42 49 48 12 5 20 16 16 19 22 24 27 26 25 25 26 28 30 31 32 32 32 31 30 30 33 36 45 72 67 79 80 63 69 52 27 29 27 24 29
12 13 13 21 28 32 40 42 44 53 50 10 6 12 30 20 15 18 20 24 25 25 25 24 26 26 24 26 26 25 24 22 22 22 35 85 93 98 93 80 60 32 29 27 26 22 30
12 18 21 29 32 39 39 46 48 52 59 51 12 6 6 11 32 30 17 15 18 22 24 24 23 23 24 24 25 26 29 24 19 23 26 44 94 95 89 67 49 36 23 27 26 29 30
16 19 38 38 40 45 42 48 53 58 63 67 54 19 8 7 11 10 30 47 36 22 17 16 17 19 23 28 32 52 33 29 37 23 24 33 61 96 75 75 49 33 25 27 31 35 26
28 25 34 36 40 50 52 51 61 65 68 73 79 66 36 13 9 8 8 10 28 44 56 56 50 37 31 31 60 55 47 36 32 44 32 37 75 87 97 84 72 37 36 36 36 34 32
46 52 40 50 49 49 62 62 61 73 72 77 80 86 84 62 35 11 10 10 11 18 39 52 56 53 50 43 62 65 53 54 33 29 30 37 59 94 90 81 79 27 29 31 32 34 36
53 62 54 53 60 62 68 74 68 77 78 83 81 83 83 86 79 56 39 14 13 12 16 16 32 46 58 51 57 60 50 58 44 52 48 55 36 44 51 37 32 35 32 34 37 40 43

GFSGBSN_700_rhum_114.txt.gz
RH
40 44 44 20 20 24 43 57 77 65 63 56 37 36 41 46 57 70 82 80 74 70 70 79 96 99 99 98 64 78 68 54 42 34 23 22 21 19 18 17 16 14 12 10 10 9 9
48 50 55 51 20 26 44 56 46 38 39 36 33 31 31 32 30 37 57 55 78 68 64 90 98 97 99 99 76 74 71 59 47 36 27 21 21 19 17 15 14 12 12 11 11 10 10
51 60 62 69 53 22 30 37 48 64 55 50 47 43 37 32 26 32 49 64 75 63 76 90 97 99 92 98 79 76 69 59 49 38 27 22 20 19 16 15 14 14 13 13 12 11 11
40 63 67 77 81 55 27 31 41 44 61 76 60 59 66 56 57 42 64 68 63 75 88 98 89 94 98 98 80 68 61 55 45 34 27 23 22 20 18 16 15 14 13 13 17 18 13
44 57 68 75 89 95 97 82 41 50 63 77 67 84 93 79 79 70 67 65 79 99 98 98 87 85 95 97 69 54 48 42 38 32 29 26 24 22 20 18 16 16 22 26 25 23 16
44 48 64 72 84 100 99 92 90 39 51 59 67 76 88 87 70 62 71 100 98 96 99 97 95 90 98 98 68 46 43 40 37 34 30 26 24 20 19 19 41 38 24 23 26 31 18
42 46 52 63 75 71 98 100 72 59 50 50 87 95 63 72 57 90 90 100 98 100 100 100 100 80 97 84 60 49 45 41 37 32 27 26 22 21 20 18 20 29 22 19 28 42 16
35 43 48 54 60 65 68 75 72 76 57 70 96 91 55 53 97 99 99 100 90 87 98 100 86 78 86 71 63 54 47 42 38 32 29 25 22 21 20 20 19 17 15 33 28 28 26
28 37 42 49 51 61 62 74 65 68 68 76 88 74 59 66 88 94 100 98 92 93 88 98 98 98 94 78 70 61 50 40 39 35 34 37 27 23 21 19 18 18 20 24 34 28 35
25 27 34 44 48 54 55 62 68 71 74 66 70 77 75 86 84 95 97 97 96 81 87 97 96 96 85 61 56 50 49 42 40 40 33 35 26 23 22 21 23 42 37 40 50 55 62
21 23 24 31 42 46 52 58 64 62 69 70 77 80 92 96 98 91 82 81 73 66 88 95 90 81 73 58 53 47 41 37 31 32 29 35 26 25 25 26 33 40 51 58 58 78 93
17 21 22 22 30 40 46 52 58 61 57 60 58 60 66 68 67 62 61 63 66 71 95 86 78 74 64 54 44 37 32 31 29 27 26 28 27 27 27 40 53 60 65 77 100 99 93
34 17 20 22 22 30 39 40 53 58 57 56 60 61 59 58 55 52 49 55 59 92 88 87 80 79 49 36 32 28 26 22 24 30 33 34 33 38 45 52 68 76 84 89 94 88 94
7 29 16 18 22 22 26 33 37 42 50 51 50 52 54 57 57 59 58 52 78 95 95 63 56 42 44 39 33 37 81 43 34 64 42 62 49 44 52 58 64 86 79 76 91 93 86
53 12 20 18 16 22 23 23 26 26 36 40 40 46 50 41 47 60 53 46 67 64 46 47 71 56 51 55 68 81 70 67 38 31 79 60 62 42 56 61 64 89 86 56 79 78 81
47 51 22 12 23 16 20 24 24 26 25 28 33 34 42 37 30 29 25 40 56 49 47 68 62 66 74 69 81 84 79 53 46 48 51 58 87 58 61 62 63 72 71 88 91 93 87
38 43 49 35 7 23 15 20 23 24 24 25 21 21 24 29 22 19 20 34 31 30 35 70 59 60 53 58 77 67 55 46 43 41 42 52 73 79 63 52 74 71 67 63 73 67 88
23 36 40 45 48 12 12 16 17 21 23 21 21 23 25 23 19 16 20 22 20 22 25 33 36 45 67 50 62 66 74 51 42 39 81 37 64 64 53 67 62 76 86 81 70 54 62
10 18 28 37 42 48 32 7 18 13 19 25 22 25 25 20 23 25 30 34 30 33 32 36 41 38 40 47 64 46 39 35 29 23 22 29 57 46 67 59 55 51 42 47 64 71 71
10 11 18 24 29 39 46 45 12 14 10 17 20 23 26 26 21 26 27 30 34 36 36 36 35 36 34 35 36 44 33 26 20 19 22 25 27 28 35 31 48 54 56 64 65 76 72
11 12 14 20 23 26 37 44 49 20 12 12 15 20 21 24 25 24 25 26 27 28 30 30 31 30 31 46 33 30 26 20 20 22 26 32 32 33 32 28 30 31 31 36 58 64 75
12 12 12 15 19 25 26 33 44 51 28 11 14 15 19 23 25 28 29 26 25 26 28 27 29 28 29 31 37 46 34 34 42 27 33 36 42 49 37 26 42 50 22 29 37 33 63
11 11 15 21 24 24 28 29 36 48 53 29 8 18 18 16 19 22 27 28 29 28 27 28 29 28 28 28 29 29 29 30 32 36 36 55 58 77 82 59 59 43 23 29 36 29 28
11 14 20 26 28 28 31 33 36 44 54 57 38 8 10 16 25 18 16 20 24 24 25 25 27 27 22 26 24 24 22 21 21 22 31 58 83 95 90 69 90 39 30 23 30 31 29
14 18 26 32 29 31 34 37 39 45 55 64 67 47 13 8 8 13 32 28 16 15 19 21 22 21 24 25 24 24 22 27 23 25 27 43 72 90 88 85 57 38 29 23 18 20 22
22 30 39 45 42 38 41 40 51 52 58 66 70 76 67 38 16 8 9 10 19 39 40 31 20 16 17 22 29 40 40 32 31 25 22 32 66 98 88 82 76 42 35 26 33 28 24
48 58 56 54 58 52 44 50 55 67 64 65 75 71 72 77 50 43 26 10 11 16 23 30 33 51 48 42 38 51 52 43 33 38 36 35 76 87 100 92 73 33 37 46 48 25 30
56 58 55 58 59 57 54 57 65 75 77 73 71 80 75 69 70 60 54 59 25 16 16 32 39 39 51 54 54 55 60 47 44 35 35 36 35 73 99 96 80 32 30 38 27 27 30
56 59 57 58 59 58 57 66 68 80 82 80 74 72 71 72 70 70 68 59 32 34 18 16 24 40 48 46 56 62 64 57 47 55 45 49 36 46 46 28 25 27 27 34 39 37 37

GFSGBSN_700_rhum_120.txt.gz
RH
44 61 80 95 93 88 44 37 41 28 30 55 90 93 96 77 84 87 81 74 69 62 84 93 99 99 90 65 55 34 26 24 23 21 18 18 18 18 17 17 18 20 22 24 23 13 9
44 60 81 93 99 91 58 47 48 36 27 30 36 46 57 43 63 69 69 61 65 63 64 82 92 88 99 84 63 38 28 26 24 23 22 20 18 18 16 16 16 16 16 14 11 9 8
42 57 85 95 96 86 55 46 42 49 37 25 22 21 22 28 47 58 75 70 70 67 74 77 75 88 98 90 76 48 32 27 26 24 23 22 20 19 17 16 16 14 12 10 10 8 8
42 54 67 95 92 86 66 45 54 63 71 64 17 13 16 24 47 71 77 95 79 85 63 59 77 78 99 82 74 57 42 32 27 25 23 21 20 19 17 16 15 13 12 11 10 10 10
42 50 57 84 76 56 45 42 61 94 90 75 41 18 20 40 68 76 70 94 83 100 99 82 92 69 82 85 72 63 49 39 32 27 23 22 19 17 16 14 13 13 14 13 16 15 14
39 46 52 59 54 51 52 51 72 91 77 69 31 27 54 74 81 88 85 81 97 93 99 92 93 83 95 90 75 70 56 47 36 28 24 22 20 18 16 13 12 11 11 13 14 13 13
35 44 47 52 53 57 54 52 61 54 56 57 61 71 81 85 90 95 85 99 96 84 87 83 83 81 88 80 72 67 57 48 38 30 26 23 21 19 17 15 14 16 21 21 18 15 14
29 41 45 47 49 53 56 46 39 43 56 71 74 83 90 99 80 88 96 97 90 79 87 89 94 80 64 57 53 55 49 42 36 31 27 24 22 19 16 15 15 16 18 17 17 16 17
20 32 44 46 50 50 53 52 54 68 66 64 61 56 70 97 97 98 98 93 88 83 94 98 98 75 53 48 44 42 40 37 34 31 28 24 21 18 17 16 17 17 17 17 18 15 15
22 21 33 39 48 49 53 65 60 69 74 80 74 74 81 92 98 96 90 92 83 78 77 94 96 78 56 50 47 43 39 35 32 30 24 24 20 19 19 19 19 18 22 23 20 21 27
19 23 22 31 33 43 47 53 64 76 82 83 90 96 95 96 81 76 91 93 88 76 90 86 76 71 60 54 52 48 42 34 28 27 27 26 22 21 21 20 19 22 21 26 33 38 38
15 19 23 23 27 30 37 42 50 63 74 68 64 63 70 78 72 64 68 62 68 68 97 78 66 60 52 49 47 45 42 38 35 29 30 26 24 24 22 22 23 28 35 43 51 71 83
15 16 17 22 22 25 26 35 42 45 46 50 50 49 49 51 56 54 60 65 64 86 73 67 57 47 43 40 36 37 33 30 30 29 26 25 25 24 25 28 35 40 46 44 62 87 85
47 21 16 16 20 22 23 22 26 38 40 40 46 46 45 46 45 48 52 50 61 96 87 68 54 47 42 42 39 32 28 24 26 25 24 24 32 26 31 38 45 48 45 53 48 85 88
33 45 35 15 14 17 21 21 19 18 19 28 28 32 38 43 44 44 42 42 72 63 53 48 40 39 37 37 44 36 30 24 22 20 27 22 31 29 35 41 45 62 59 58 52 79 97
21 31 38 44 22 14 14 18 18 19 18 17 22 21 25 30 34 36 35 46 53 43 39 35 39 33 38 48 54 47 41 28 27 23 27 31 34 26 25 38 47 54 59 66 74 71 80
12 19 26 31 41 36 14 11 14 17 17 16 16 14 17 19 24 21 22 34 34 32 31 34 45 47 41 49 49 51 44 41 42 40 42 43 51 57 50 40 41 53 73 69 62 69 91
11 12 15 21 26 34 45 22 11 12 14 15 13 18 14 14 11 10 18 22 26 31 36 42 47 46 51 52 52 49 42 44 32 31 32 26 42 36 27 31 48 60 71 70 62 51 66
15 18 22 18 20 26 31 44 36 11 10 13 14 16 17 17 16 16 20 24 28 34 36 38 38 43 42 43 42 38 36 32 26 24 27 33 30 32 35 49 52 56 36 51 68 71 72
18 23 28 25 27 26 22 30 42 40 11 10 12 14 17 19 20 23 24 25 28 30 30 31 32 32 32 33 35 34 30 28 24 22 23 26 28 24 16 17 24 41 32 38 59 87 69
15 19 31 35 35 36 34 24 29 43 44 13 11 13 14 15 17 19 22 23 26 27 30 30 32 32 35 38 38 36 32 30 28 28 30 38 33 30 26 27 30 30 31 34 46 46 71
10 13 36 39 41 39 42 36 30 33 46 46 16 11 12 14 15 17 18 22 23 26 27 28 31 32 32 31 32 34 36 36 36 32 37 44 45 44 38 24 30 34 25 25 29 33 43
9 11 37 44 42 42 43 42 34 35 38 46 54 31 10 12 14 15 14 17 19 20 20 22 24 25 26 28 29 31 30 29 35 37 46 62 60 59 48 38 39 30 14 17 21 24 27
9 9 31 46 44 42 41 42 41 40 44 43 50 57 53 26 10 10 10 17 20 18 17 17 20 20 22 23 21 20 18 16 19 24 31 43 57 76 74 53 65 17 19 19 22 18 22
8 7 16 44 48 45 40 42 41 41 45 48 49 57 60 62 62 22 18 8 10 12 15 20 23 23 22 21 21 19 22 26 26 28 29 34 52 79 74 90 34 21 19 21 22 16 20
8 7 8 25 46 45 44 43 43 42 42 45 48 52 61 63 63 62 62 60 55 27 13 12 14 18 28 36 39 44 38 35 34 31 30 31 50 70 82 82 62 22 21 22 26 22 18
8 10 17 22 32 43 46 44 44 45 44 44 46 48 53 59 65 63 66 73 66 42 66 46 35 18 22 29 40 48 44 43 41 36 32 36 52 61 74 94 46 16 23 25 31 22 28
11 14 25 36 45 53 56 50 46 45 45 45 45 46 48 51 58 66 63 64 61 65 67 60 42 29 28 35 35 35 45 42 42 39 34 36 39 52 94 98 61 19 23 31 32 33 33
39 37 37 42 54 59 59 55 50 47 46 45 46 45 45 47 50 51 57 63 54 57 63 64 56 34 25 27 35 40 43 46 45 48 45 42 32 33 37 32 32 39 40 42 42 41 38

GFSGBSN_700_rhum_123.txt.gz
RH
51 88 88 79 81 51 40 44 39 25 39 85 96 90 94 95 82 96 96 76 60 52 78 99 100 93 82 59 41 29 23 19 17 17 16 16 16 14 13 14 16 21 22 26 28 27 23
51 71 91 75 79 49 40 47 48 25 20 46 70 56 66 97 93 92 89 74 64 65 82 97 100 99 87 59 46 28 23 21 20 19 19 20 20 20 20 20 21 22 25 26 24 20 11
50 53 62 51 53 43 52 62 63 54 17 17 23 29 44 64 66 60 64 74 67 58 68 87 98 99 94 74 48 28 25 23 21 19 18 19 19 19 18 17 17 18 20 17 13 10 9
51 52 49 49 52 45 54 77 79 64 23 14 18 20 38 71 71 68 72 77 70 64 78 70 96 96 93 75 44 30 27 25 24 23 21 21 19 19 17 17 16 15 14 12 11 9 8
47 51 51 49 40 57 66 60 41 50 21 13 14 20 46 76 84 96 96 87 63 72 76 79 86 98 96 74 52 34 28 26 26 24 24 22 21 20 17 16 15 13 11 10 10 8 8
44 50 51 47 37 36 40 51 35 15 19 12 18 60 78 83 86 96 98 98 90 91 86 93 88 91 92 77 60 44 34 28 25 24 24 22 19 18 16 14 12 11 10 10 11 11 11
40 46 53 52 48 50 48 47 43 21 12 22 56 71 82 92 72 98 92 100 100 100 100 83 89 79 84 75 66 54 42 35 29 26 23 21 19 18 16 14 12 12 11 11 15 15 14
28 41 49 53 50 57 60 56 56 58 50 52 66 88 84 99 94 89 93 93 95 99 90 93 93 89 83 71 67 58 48 39 33 28 24 22 21 19 17 15 14 14 15 15 14 14 15
18 30 39 51 51 57 60 68 53 51 53 61 76 81 64 82 84 98 98 91 96 94 96 75 65 77 69 62 62 55 46 41 36 31 26 24 21 19 17 15 14 14 15 16 16 16 16
20 21 29 37 49 57 58 54 64 78 80 72 78 80 89 83 86 90 96 90 79 81 84 82 70 60 54 47 49 48 42 39 35 31 28 24 20 19 16 17 17 18 19 20 20 19 21
18 22 22 27 36 45 59 60 50 51 60 86 91 78 74 89 84 80 75 69 66 62 88 88 71 62 50 51 48 43 40 38 33 30 24 22 19 20 20 19 19 20 21 22 24 28 33
16 18 23 23 24 32 45 49 49 47 46 51 63 75 72 55 60 64 64 65 68 65 95 84 74 63 54 50 46 41 40 33 30 28 25 25 23 22 21 21 22 23 25 28 35 50 72
38 18 18 23 23 23 25 32 42 41 44 44 44 47 51 51 51 50 58 63 60 83 75 68 63 54 49 48 46 44 41 36 32 30 29 27 25 24 24 25 27 28 29 30 53 75 66
29 41 21 19 21 23 20 24 22 31 35 36 36 42 48 57 58 52 50 54 62 84 78 61 55 50 44 42 39 36 34 32 29 28 26 24 30 24 25 28 36 38 36 35 43 67 79
21 24 34 36 18 18 24 19 19 19 23 26 28 34 40 45 50 45 47 51 72 62 52 45 40 37 37 35 36 28 24 21 22 19 21 19 22 24 29 37 40 50 54 53 49 68 96
17 20 24 28 42 22 15 20 20 18 18 18 20 23 31 37 41 41 38 50 56 48 43 38 37 35 32 36 38 30 30 20 19 19 18 22 24 30 29 32 38 46 57 60 52 57 68
22 22 20 23 28 38 36 14 15 18 16 18 15 14 21 21 26 26 26 35 39 40 41 44 42 41 40 48 47 47 40 37 37 35 38 33 42 46 34 28 37 52 61 60 58 59 84
24 28 24 24 24 25 38 44 13 13 16 15 16 16 13 13 12 12 17 21 22 26 32 33 34 33 45 48 46 44 41 39 34 32 28 30 32 30 27 30 34 40 49 57 60 54 63
22 28 34 32 33 31 26 38 46 17 11 14 14 15 18 16 15 15 19 24 27 30 31 32 34 36 38 38 35 32 32 29 27 24 25 26 30 24 25 35 34 41 31 40 61 67 67
16 22 35 38 37 40 36 30 36 46 26 11 12 14 16 18 18 22 23 26 27 28 28 30 29 30 32 33 36 34 31 29 26 24 25 27 25 23 17 17 22 29 27 33 50 87 69
11 11 36 39 39 40 40 35 34 39 48 31 14 11 13 14 16 18 20 21 24 23 25 26 26 26 26 28 29 28 28 28 28 28 28 35 33 31 28 29 33 32 33 37 51 46 67
11 8 26 38 38 38 38 38 37 41 41 50 44 17 12 13 16 18 19 21 22 22 22 24 24 24 26 26 27 27 28 29 32 31 35 41 43 43 30 21 30 32 26 28 30 38 48
11 9 11 34 38 36 37 37 38 41 45 44 49 50 35 18 11 13 17 20 25 22 21 22 24 25 24 26 24 25 24 25 27 30 37 50 52 54 44 31 31 28 16 17 21 21 24
10 9 7 15 38 39 34 36 37 37 39 45 44 51 55 54 50 27 16 10 17 24 25 22 22 23 24 23 21 20 18 18 20 21 30 42 52 67 62 42 49 17 16 17 17 14 20
8 8 8 7 15 26 28 36 37 39 40 41 44 47 49 56 55 48 47 40 11 13 21 12 16 21 27 31 38 35 26 28 28 28 29 35 50 61 60 82 28 17 17 19 23 16 19
8 8 7 7 9 15 24 33 44 41 40 41 42 43 49 50 56 60 58 62 62 58 25 24 27 20 16 20 28 42 37 33 36 34 31 34 53 73 83 68 55 18 19 19 25 22 18
8 8 8 8 11 16 26 35 44 48 44 42 42 41 42 47 53 55 61 58 57 57 58 64 68 54 35 29 33 39 40 38 36 36 31 34 46 60 84 93 36 29 24 30 38 30 33
9 8 8 10 15 18 22 35 49 51 49 45 45 43 42 41 44 51 54 57 60 59 57 56 52 43 32 28 33 39 45 47 46 41 39 37 37 49 93 96 59 30 34 39 42 45 50
12 13 14 25 28 36 41 49 58 57 53 49 47 48 48 45 44 42 42 52 56 57 61 57 65 67 61 46 37 33 35 40 48 55 57 51 44 37 41 34 39 44 48 51 55 56 50

GFSGBSN_700_rhum_126.txt.gz
RH
31 45 48 51 41 55 53 31 19 28 71 71 87 94 94 84 82 78 84 86 71 66 88 100 99 99 78 63 42 26 18 15 14 12 11 10 10 11 13 14 14 19 20 23 28 30 28
31 32 35 47 50 68 66 52 21 14 29 35 43 81 85 85 81 98 89 80 64 56 71 99 99 98 76 52 43 27 21 18 17 15 14 12 11 12 12 13 16 17 22 24 28 28 27
33 37 33 35 51 44 57 56 23 14 13 19 30 60 80 81 98 89 88 76 72 69 82 98 98 89 64 52 40 27 23 20 20 19 20 18 17 17 15 16 19 22 26 28 27 25 21
34 45 42 38 32 18 27 27 18 13 13 14 34 74 70 75 72 85 89 70 72 74 89 98 99 90 69 55 33 27 24 22 21 23 23 22 21 20 20 21 21 20 22 21 18 14 11
36 45 52 44 33 17 14 18 13 10 10 14 59 81 78 97 78 82 74 72 74 99 96 94 99 90 69 43 31 27 25 23 21 23 23 22 20 20 18 18 17 16 14 15 13 12 10
38 42 53 48 43 32 14 11 11 10 11 34 68 73 92 98 88 83 76 74 97 95 98 87 98 87 70 43 31 28 26 26 26 27 25 24 21 20 18 17 15 14 12 11 10 10 9
36 41 45 54 50 45 45 40 42 49 59 54 68 63 74 86 99 91 80 100 84 82 80 95 97 84 72 51 36 30 28 28 26 25 24 21 20 19 17 16 14 13 11 10 9 9 9
25 35 43 51 57 60 54 56 62 72 85 93 80 77 61 86 86 97 98 95 82 80 98 100 95 77 72 55 46 37 31 28 26 24 22 21 18 18 16 15 14 12 13 13 13 11 12
19 25 36 43 58 53 64 76 70 74 78 81 74 80 70 80 85 99 93 88 90 85 87 93 90 73 70 56 50 44 35 32 28 26 24 21 20 18 17 15 14 13 13 13 15 16 17
17 22 26 38 41 46 53 61 72 78 74 85 79 80 91 87 92 92 89 91 73 68 75 89 80 65 65 57 51 48 41 37 34 30 26 24 21 20 17 15 14 15 17 18 19 19 19
18 17 24 26 31 37 40 46 56 70 74 74 82 71 83 84 89 88 77 76 74 70 88 78 68 67 54 53 54 50 45 41 36 30 26 24 21 20 17 16 17 18 19 20 19 20 26
39 19 17 23 27 25 26 34 45 47 52 53 57 57 60 62 71 76 66 67 63 62 92 73 61 51 50 50 48 47 39 36 33 30 27 22 21 18 18 19 20 21 22 21 26 42 67
34 46 25 16 20 26 26 23 29 34 43 48 49 50 51 52 54 56 60 64 66 78 76 73 60 55 50 45 41 38 37 33 28 29 27 26 23 21 22 23 25 25 24 24 45 61 60
22 32 48 38 16 18 23 26 22 24 31 33 39 46 47 45 47 47 53 56 60 74 76 67 57 49 46 44 40 39 35 34 30 27 25 26 27 25 26 28 31 32 31 31 36 62 62
23 23 30 41 51 21 15 20 23 21 17 23 30 38 41 38 42 46 45 45 68 62 54 50 48 44 42 41 39 34 34 30 29 27 26 25 24 27 29 28 29 38 40 43 46 65 86
28 26 26 28 34 50 30 14 18 20 18 14 16 22 33 35 32 33 34 48 54 47 44 40 38 37 34 35 32 24 21 20 20 20 21 19 21 26 29 30 33 33 50 56 45 45 49
24 32 33 33 32 32 46 38 13 15 17 17 12 10 15 22 24 24 31 41 43 39 36 34 29 29 30 32 33 35 29 28 25 23 30 28 31 43 27 23 24 44 56 54 52 49 78
21 31 35 36 40 37 32 42 45 12 14 15 17 13 11 11 12 16 21 24 26 29 30 28 26 22 36 38 40 41 43 44 40 38 34 32 34 32 39 34 41 41 47 49 54 48 57
14 20 34 35 37 41 36 34 41 46 13 14 15 16 17 16 15 17 22 27 31 35 38 36 37 38 40 40 40 41 38 33 29 26 24 23 23 19 23 33 31 34 25 34 46 58 62
12 12 32 35 35 35 39 37 38 45 44 15 14 15 17 18 19 21 23 25 26 28 28 30 31 31 33 32 30 28 27 23 21 18 18 19 19 17 13 14 19 24 24 29 40 71 59
14 11 17 36 38 36 34 36 40 42 44 44 22 13 14 15 15 17 19 20 22 20 23 23 24 26 26 27 27 26 26 26 24 22 23 27 26 23 21 22 28 27 26 32 43 38 58
13 12 8 26 35 36 37 34 36 39 42 48 52 29 16 14 14 14 14 16 18 19 20 20 22 22 22 24 25 26 26 26 28 26 32 39 44 43 26 21 26 25 22 24 30 35 38
13 11 9 8 17 30 32 36 37 36 39 44 50 56 54 30 16 12 12 13 14 15 18 18 20 21 22 24 23 24 25 27 29 32 37 51 52 53 46 36 33 27 18 16 20 22 24
10 10 9 8 7 11 20 24 33 39 37 40 44 49 56 61 60 53 31 12 13 13 15 16 17 18 17 18 19 20 20 21 24 27 32 41 53 66 56 36 50 20 20 20 18 22 26
9 9 8 8 7 8 10 17 26 38 41 38 40 43 48 54 62 58 65 66 49 36 45 48 14 11 11 13 17 22 30 28 28 30 29 29 40 56 55 67 28 25 20 22 23 36 26
9 9 8 8 7 7 10 16 21 31 43 43 40 41 42 44 49 58 61 67 69 68 61 26 33 50 48 29 19 21 30 33 32 35 34 40 52 68 75 67 52 22 28 30 32 31 25
9 8 8 8 8 8 9 12 15 20 35 47 45 43 43 43 43 46 51 61 62 66 65 66 72 69 55 43 33 28 30 33 36 34 32 37 49 60 87 92 34 31 32 40 44 41 45
9 9 8 9 10 10 12 20 24 26 33 44 47 47 46 46 47 49 46 48 52 59 69 61 60 52 48 38 34 32 37 37 38 37 42 46 44 52 82 96 57 35 42 47 51 53 52
10 10 10 10 14 18 25 25 29 37 42 49 53 52 50 48 49 48 44 44 46 55 58 63 65 68 67 60 50 42 40 44 46 50 50 54 52 43 42 37 41 48 51 55 59 55 50

GFSGBSN_700_rhum_129.txt.gz
RH
39 15 17 24 30 33 19 14 16 21 27 46 80 91 86 87 92 91 94 87 68 76 86 99 96 98 87 72 46 27 13 10 10 12 13 11 10 10 10 11 12 14 14 17 21 23 27
47 24 12 19 22 16 14 10 10 11 19 43 77 88 86 84 85 87 79 87 73 91 88 98 98 99 80 61 43 26 17 13 12 11 12 12 12 12 12 12 14 15 19 20 24 27 28
49 37 12 12 16 12 10 8 8 8 19 76 69 88 90 93 96 96 87 81 71 75 94 100 94 98 69 53 40 25 22 18 14 13 12 12 13 14 14 15 16 17 20 22 24 26 26
46 52 36 13 12 11 12 11 9 8 37 75 71 84 92 89 89 83 82 72 66 68 62 90 98 83 58 48 32 27 24 21 18 17 15 15 14 16 14 17 17 22 25 27 26 26 23
44 51 51 41 27 13 13 18 22 28 55 71 86 87 93 91 85 79 69 64 62 56 88 96 94 79 50 39 31 27 25 25 23 21 21 21 20 21 21 22 22 22 22 23 20 18 16
38 48 59 55 48 50 48 61 58 66 68 65 83 92 83 87 81 81 86 75 82 73 90 97 86 58 41 33 28 27 26 26 25 24 24 22 21 21 20 19 18 17 16 14 14 13 11
24 44 55 56 72 71 74 79 79 73 82 82 68 80 96 100 73 87 99 85 90 92 75 87 82 48 35 30 28 27 27 29 26 24 23 22 22 20 18 17 16 14 13 11 10 9 8
18 28 43 54 55 71 68 74 74 72 75 70 63 84 95 86 78 91 96 99 90 79 99 95 66 49 37 32 30 30 30 29 26 25 22 22 20 19 18 16 14 11 10 10 10 9 8
21 19 24 40 48 58 73 69 69 67 69 61 61 78 94 92 95 96 98 90 87 79 94 81 68 56 43 37 32 30 28 26 25 23 22 20 20 17 16 15 13 12 11 10 10 12 14
19 20 20 22 35 47 56 70 72 76 74 73 73 74 79 93 95 95 86 74 83 81 77 79 69 59 50 42 37 33 29 27 26 24 23 21 20 18 17 15 13 11 12 14 16 19 20
41 20 18 21 22 32 42 48 49 53 65 63 75 74 80 80 75 78 72 68 66 60 85 74 62 60 54 50 44 41 37 34 31 29 26 25 21 19 17 15 14 14 17 19 19 20 23
35 46 24 16 21 22 27 28 33 44 50 55 58 62 67 59 57 59 63 61 60 59 89 68 61 56 52 51 45 46 40 37 35 31 28 21 21 17 16 16 18 20 22 20 20 28 46
27 32 47 33 15 20 22 24 26 31 41 47 55 59 52 49 51 53 57 59 59 75 70 63 54 51 49 50 46 46 39 36 28 29 27 22 20 18 21 22 24 24 21 18 39 53 57
30 30 32 41 42 15 17 20 20 21 30 40 47 49 52 54 48 51 54 54 60 76 77 57 54 50 46 43 40 36 32 29 25 23 21 24 25 25 27 28 28 26 23 24 33 52 44
31 34 35 35 34 48 15 14 18 15 16 29 37 41 46 50 50 49 48 49 66 69 64 55 50 46 45 42 38 37 33 33 30 27 26 28 27 29 30 28 28 34 32 35 39 56 72
22 35 37 41 38 35 48 16 13 16 13 12 21 28 31 36 42 43 40 43 52 50 47 44 42 40 38 36 35 31 32 29 24 28 24 20 25 29 29 30 30 30 34 46 40 44 42
19 30 38 40 42 36 36 48 17 12 15 13 10 12 18 26 34 32 34 41 41 40 36 31 33 32 32 31 28 23 24 21 16 16 18 21 18 34 27 22 19 31 36 44 44 44 54
14 14 34 38 40 40 38 38 48 17 11 13 14 12 12 13 14 14 24 30 29 24 20 20 22 22 22 24 23 31 29 34 31 31 35 32 31 27 37 28 35 35 35 40 43 41 53
15 12 24 32 35 37 38 40 40 46 22 11 12 16 17 15 17 18 22 24 24 28 29 28 27 28 30 32 32 32 32 28 31 27 22 20 21 20 23 32 31 36 25 32 40 51 53
14 12 10 29 29 32 35 36 39 41 44 26 12 13 14 16 20 23 23 26 27 28 28 30 31 30 29 27 25 25 24 24 24 22 21 21 20 17 12 15 19 22 20 25 35 58 42
12 11 9 11 26 26 29 34 36 38 41 44 37 18 13 15 17 20 21 22 21 21 24 26 27 27 26 25 25 27 27 27 27 27 25 27 28 23 21 22 26 23 26 35 44 38 50
12 10 10 8 8 20 22 21 34 36 38 43 48 44 25 15 14 16 17 20 20 20 20 20 21 23 24 26 25 26 26 29 28 29 31 34 36 31 16 15 22 23 22 24 28 35 40
14 11 9 9 8 7 13 16 20 35 36 38 43 48 51 48 40 19 13 14 18 21 21 20 20 21 19 23 21 22 23 25 27 28 31 36 36 36 29 26 27 23 21 21 22 23 26
13 12 10 9 8 7 7 9 14 22 34 37 37 41 44 50 52 50 40 18 18 13 16 19 21 21 20 20 20 19 19 19 20 22 26 33 42 50 43 33 47 19 22 20 22 30 33
14 12 10 9 8 8 7 8 10 13 20 33 38 38 40 42 48 52 58 56 59 51 49 47 46 21 15 15 20 20 24 26 24 30 33 34 40 47 48 50 26 24 22 26 29 35 30
15 13 10 9 8 8 7 8 9 10 13 22 35 39 41 41 43 44 52 56 60 59 61 61 35 25 38 38 37 26 24 32 31 33 35 39 45 56 64 58 46 22 33 35 44 42 32
16 14 10 9 8 8 8 8 9 11 13 15 22 40 44 42 43 45 48 49 49 52 54 61 63 67 68 60 48 36 29 31 38 36 34 43 56 66 77 72 39 31 34 45 48 45 45
17 13 11 9 9 9 9 9 12 15 17 19 21 24 39 46 47 45 47 48 48 49 53 58 63 55 55 49 37 36 38 37 39 39 37 40 47 58 90 98 58 34 42 54 58 56 57
17 13 11 10 11 11 12 14 19 22 22 28 31 35 41 49 50 50 48 43 45 47 50 57 65 60 63 59 53 63 55 53 45 49 49 52 48 48 50 40 40 45 50 58 62 58 55